| time (UTC) | temp C | wind direction | speed KPH | gust KPH | rain 1hr cm | rain 24hr cm | rain mn cm | humidity % | barometer mb |
| 20260507034103 | 11 | 293 | 0.0 | 1.6 | 0.00 | 1.45 | 0.33 | 90 | 1012.8 |
| 20260507034003 | 11 | 293 | 0.0 | 1.6 | 0.00 | 1.45 | 0.33 | 90 | 1012.8 |
| 20260507033904 | 11 | 293 | 0.0 | 1.6 | 0.00 | 1.45 | 0.33 | 90 | 1012.8 |
| 20260507033804 | 11 | 292 | 0.0 | 3.2 | 0.00 | 1.45 | 0.33 | 90 | 1012.8 |
| 20260507033704 | 11 | 292 | 0.0 | 3.2 | 0.00 | 1.45 | 0.33 | 90 | 1012.8 |
| 20260507033604 | 11 | 293 | 0.0 | 3.2 | 0.00 | 1.45 | 0.33 | 90 | 1012.8 |
| 20260507033504 | 11 | 293 | 0.0 | 3.2 | 0.00 | 1.45 | 0.33 | 90 | 1012.8 |
| 20260507033404 | 11 | 293 | 0.0 | 3.2 | 0.00 | 1.45 | 0.33 | 90 | 1012.8 |
| 20260507033304 | 11 | 294 | 0.0 | 3.2 | 0.00 | 1.45 | 0.33 | 90 | 1012.7 |
| 20260507033204 | 11 | 294 | 0.0 | 3.2 | 0.00 | 1.45 | 0.33 | 91 | 1012.8 |
| 20260507033104 | 11 | 294 | 0.0 | 3.2 | 0.00 | 1.45 | 0.33 | 91 | 1012.8 |
| 20260507033004 | 11 | 294 | 0.0 | 3.2 | 0.00 | 1.45 | 0.33 | 91 | 1012.8 |
| 20260507032904 | 11 | 294 | 0.0 | 3.2 | 0.00 | 1.45 | 0.33 | 91 | 1012.8 |
| 20260507032804 | 11 | 300 | 0.0 | 1.6 | 0.00 | 1.45 | 0.33 | 91 | 1012.8 |
| 20260507032704 | 11 | 300 | 0.0 | 1.6 | 0.00 | 1.45 | 0.33 | 91 | 1012.8 |
| 20260507032604 | 11 | 299 | 0.0 | 1.6 | 0.00 | 1.45 | 0.33 | 91 | 1012.8 |
| 20260507032504 | 11 | 299 | 0.0 | 1.6 | 0.00 | 1.45 | 0.33 | 91 | 1012.8 |
| 20260507032404 | 11 | 299 | 0.0 | 1.6 | 0.00 | 1.45 | 0.33 | 91 | 1012.8 |
| 20260507032305 | 11 | 0 | 0.0 | 0.0 | 0.00 | 1.45 | 0.33 | 91 | 1012.7 |
| 20260507032203 | 11 | 0 | 0.0 | 0.0 | 0.00 | 1.45 | 0.33 | 91 | 1012.7 |
| 20260507032103 | 11 | 0 | 0.0 | 0.0 | 0.00 | 1.45 | 0.33 | 91 | 1012.7 |
| 20260507032004 | 11 | 0 | 0.0 | 0.0 | 0.00 | 1.45 | 0.33 | 91 | 1012.8 |
| 20260507031903 | 11 | 0 | 0.0 | 0.0 | 0.00 | 1.45 | 0.33 | 91 | 1012.8 |
| 20260507031803 | 11 | 0 | 0.0 | 0.0 | 0.00 | 1.45 | 0.33 | 91 | 1012.8 |
| 20260507031703 | 11 | 0 | 0.0 | 0.0 | 0.00 | 1.45 | 0.33 | 91 | 1012.7 |
| 20260507031603 | 11 | 0 | 0.0 | 0.0 | 0.00 | 1.45 | 0.33 | 91 | 1012.7 |
| 20260507031503 | 11 | 0 | 0.0 | 0.0 | 0.00 | 1.45 | 0.33 | 91 | 1012.7 |
| 20260507031403 | 11 | 0 | 0.0 | 0.0 | 0.00 | 1.45 | 0.33 | 91 | 1012.8 |
| 20260507031303 | 11 | 0 | 0.0 | 0.0 | 0.00 | 1.45 | 0.33 | 91 | 1012.8 |
| 20260507031203 | 11 | 0 | 0.0 | 0.0 | 0.00 | 1.45 | 0.33 | 91 | 1012.7 |
| 20260507031103 | 11 | 0 | 0.0 | 0.0 | 0.00 | 1.45 | 0.33 | 91 | 1012.7 |
| 20260507031004 | 11 | 0 | 0.0 | 0.0 | 0.00 | 1.45 | 0.33 | 91 | 1012.8 |
| 20260507030903 | 11 | 0 | 0.0 | 0.0 | 0.00 | 1.45 | 0.33 | 91 | 1012.7 |
| 20260507030803 | 11 | 0 | 0.0 | 0.0 | 0.00 | 1.45 | 0.33 | 91 | 1012.7 |
| 20260507030703 | 11 | 0 | 0.0 | 0.0 | 0.00 | 1.45 | 0.33 | 91 | 1012.7 |
| 20260507030603 | 11 | 0 | 0.0 | 0.0 | 0.00 | 1.45 | 0.33 | 91 | 1012.7 |
| 20260507030503 | 11 | 0 | 0.0 | 0.0 | 0.03 | 1.45 | 0.33 | 91 | 1012.8 |
| 20260507030403 | 11 | 0 | 0.0 | 0.0 | 0.03 | 1.45 | 0.33 | 91 | 1012.8 |
| 20260507030303 | 11 | 0 | 0.0 | 0.0 | 0.03 | 1.45 | 0.33 | 91 | 1012.8 |
| 20260507030203 | 11 | 0 | 0.0 | 0.0 | 0.03 | 1.45 | 0.33 | 91 | 1012.8 |
| 20260507030003 | 11 | 0 | 0.0 | 0.0 | 0.03 | 1.45 | 0.33 | 91 | 1012.8 |
| 20260507025903 | 11 | 0 | 0.0 | 0.0 | 0.03 | 1.45 | 0.33 | 91 | 1012.8 |
| 20260507025803 | 11 | 0 | 0.0 | 0.0 | 0.03 | 1.45 | 0.33 | 91 | 1012.8 |
| 20260507025703 | 11 | 0 | 0.0 | 0.0 | 0.03 | 1.45 | 0.33 | 91 | 1012.8 |
| 20260507025603 | 11 | 0 | 0.0 | 0.0 | 0.03 | 1.45 | 0.33 | 91 | 1012.8 |
| 20260507025503 | 11 | 0 | 0.0 | 0.0 | 0.03 | 1.45 | 0.33 | 91 | 1012.8 |
| 20260507025403 | 11 | 0 | 0.0 | 0.0 | 0.03 | 1.45 | 0.33 | 91 | 1012.8 |
| 20260507025306 | 11 | 0 | 0.0 | 0.0 | 0.03 | 1.45 | 0.33 | 91 | 1012.8 |
| 20260507025203 | 11 | 0 | 0.0 | 0.0 | 0.03 | 1.45 | 0.33 | 91 | 1012.8 |
| 20260507025103 | 11 | 0 | 0.0 | 0.0 | 0.03 | 1.45 | 0.33 | 91 | 1012.8 |
| 20260507025003 | 11 | 0 | 0.0 | 0.0 | 0.03 | 1.47 | 0.33 | 91 | 1012.8 |
| 20260507024903 | 11 | 0 | 0.0 | 0.0 | 0.03 | 1.47 | 0.33 | 91 | 1012.8 |
| 20260507024803 | 11 | 292 | 0.0 | 3.2 | 0.03 | 1.47 | 0.33 | 91 | 1012.8 |
| 20260507024703 | 11 | 293 | 0.0 | 3.2 | 0.03 | 1.47 | 0.33 | 91 | 1012.8 |
| 20260507024603 | 11 | 293 | 0.0 | 3.2 | 0.03 | 1.47 | 0.33 | 91 | 1012.8 |
| 20260507024503 | 11 | 293 | 0.0 | 3.2 | 0.03 | 1.47 | 0.33 | 91 | 1012.8 |
| 20260507024403 | 11 | 291 | 0.0 | 3.2 | 0.03 | 1.47 | 0.33 | 91 | 1012.7 |
| 20260507024303 | 11 | 287 | 0.0 | 6.4 | 0.03 | 1.47 | 0.33 | 91 | 1012.8 |
| 20260507024203 | 11 | 286 | 0.0 | 6.4 | 0.03 | 1.47 | 0.33 | 91 | 1012.8 |
| 20260507024103 | 11 | 286 | 0.0 | 6.4 | 0.03 | 1.47 | 0.33 | 91 | 1012.8 |
| 20260507024003 | 11 | 286 | 0.0 | 6.4 | 0.03 | 1.47 | 0.33 | 91 | 1012.8 |
| 20260507023904 | 11 | 285 | 0.0 | 9.7 | 0.03 | 1.47 | 0.33 | 91 | 1012.8 |
| 20260507023804 | 11 | 283 | 1.6 | 9.7 | 0.03 | 1.47 | 0.33 | 91 | 1012.8 |
| 20260507023704 | 11 | 283 | 1.6 | 9.7 | 0.03 | 1.47 | 0.33 | 91 | 1012.8 |
| 20260507023604 | 11 | 283 | 1.6 | 9.7 | 0.03 | 1.47 | 0.33 | 91 | 1012.8 |
| 20260507023504 | 11 | 283 | 1.6 | 9.7 | 0.03 | 1.47 | 0.33 | 91 | 1012.8 |
| 20260507023404 | 11 | 283 | 1.6 | 9.7 | 0.03 | 1.47 | 0.33 | 91 | 1012.8 |
| 20260507023304 | 11 | 282 | 0.0 | 9.7 | 0.03 | 1.47 | 0.33 | 91 | 1012.8 |
| 20260507023204 | 11 | 283 | 0.0 | 9.7 | 0.03 | 1.47 | 0.33 | 91 | 1012.8 |
| 20260507023104 | 11 | 284 | 1.6 | 9.7 | 0.03 | 1.47 | 0.33 | 91 | 1012.8 |
| 20260507023004 | 11 | 284 | 1.6 | 9.7 | 0.03 | 1.50 | 0.33 | 91 | 1012.8 |
| 20260507022908 | 11 | 284 | 1.6 | 9.7 | 0.03 | 1.50 | 0.33 | 91 | 1012.8 |
| 20260507022804 | 11 | 286 | 0.0 | 6.4 | 0.03 | 1.50 | 0.33 | 91 | 1012.8 |
| 20260507022704 | 11 | 286 | 0.0 | 6.4 | 0.03 | 1.50 | 0.33 | 91 | 1012.8 |
| 20260507022604 | 11 | 285 | 1.6 | 8.0 | 0.03 | 1.50 | 0.33 | 91 | 1012.8 |
| 20260507022504 | 11 | 286 | 1.6 | 8.0 | 0.03 | 1.50 | 0.33 | 91 | 1012.7 |
| 20260507022404 | 11 | 287 | 1.6 | 8.0 | 0.03 | 1.50 | 0.33 | 91 | 1012.7 |
| 20260507022306 | 11 | 287 | 1.6 | 8.0 | 0.03 | 1.50 | 0.33 | 91 | 1012.7 |
| 20260507022204 | 11 | 287 | 1.6 | 8.0 | 0.03 | 1.50 | 0.33 | 91 | 1012.7 |
| 20260507022104 | 11 | 286 | 0.0 | 8.0 | 0.03 | 1.50 | 0.33 | 91 | 1012.8 |
| 20260507022004 | 11 | 286 | 0.0 | 8.0 | 0.03 | 1.50 | 0.33 | 91 | 1012.8 |
| 20260507021904 | 11 | 286 | 0.0 | 8.0 | 0.03 | 1.50 | 0.33 | 91 | 1012.8 |
| 20260507021804 | 11 | 286 | 0.0 | 8.0 | 0.03 | 1.50 | 0.33 | 91 | 1012.7 |
| 20260507021704 | 11 | 286 | 0.0 | 8.0 | 0.03 | 1.50 | 0.33 | 91 | 1012.7 |
| 20260507021604 | 11 | 292 | 0.0 | 4.8 | 0.03 | 1.50 | 0.33 | 91 | 1012.7 |
| 20260507021504 | 11 | 295 | 0.0 | 4.8 | 0.03 | 1.52 | 0.33 | 91 | 1012.7 |
| 20260507021404 | 11 | 295 | 0.0 | 4.8 | 0.03 | 1.52 | 0.33 | 91 | 1012.7 |
| 20260507021304 | 11 | 296 | 0.0 | 4.8 | 0.03 | 1.52 | 0.33 | 91 | 1012.7 |
| 20260507021203 | 11 | 295 | 0.0 | 4.8 | 0.03 | 1.52 | 0.33 | 91 | 1012.7 |
| 20260507021103 | 11 | 295 | 0.0 | 4.8 | 0.03 | 1.52 | 0.33 | 91 | 1012.7 |
| 20260507021004 | 11 | 295 | 0.0 | 4.8 | 0.03 | 1.55 | 0.33 | 91 | 1012.6 |
| 20260507020903 | 11 | 295 | 0.0 | 4.8 | 0.03 | 1.55 | 0.33 | 92 | 1012.6 |
| 20260507020803 | 11 | 295 | 0.0 | 4.8 | 0.03 | 1.55 | 0.33 | 92 | 1012.7 |
| 20260507020703 | 11 | 294 | 0.0 | 6.4 | 0.03 | 1.55 | 0.33 | 92 | 1012.7 |
| 20260507020603 | 11 | 294 | 0.0 | 6.4 | 0.03 | 1.55 | 0.33 | 92 | 1012.7 |
| 20260507020503 | 11 | 294 | 0.0 | 6.4 | 0.00 | 1.52 | 0.30 | 92 | 1012.7 |
| 20260507020403 | 11 | 294 | 0.0 | 6.4 | 0.00 | 1.52 | 0.30 | 92 | 1012.7 |
| 20260507020303 | 11 | 292 | 0.0 | 6.4 | 0.00 | 1.52 | 0.30 | 92 | 1012.7 |
| 20260507020203 | 11 | 292 | 0.0 | 6.4 | 0.00 | 1.52 | 0.30 | 92 | 1012.7 |
| 20260507020103 | 11 | 292 | 0.0 | 6.4 | 0.00 | 1.52 | 0.30 | 92 | 1012.7 |
| 20260507020003 | 11 | 291 | 0.0 | 6.4 | 0.00 | 1.52 | 0.30 | 92 | 1012.7 |
| 20260507015903 | 11 | 290 | 0.0 | 6.4 | 0.00 | 1.52 | 0.30 | 92 | 1012.7 |
| 20260507015803 | 11 | 290 | 0.0 | 6.4 | 0.00 | 1.52 | 0.30 | 92 | 1012.6 |
| 20260507015703 | 11 | 290 | 0.0 | 3.2 | 0.00 | 1.52 | 0.30 | 92 | 1012.6 |
| 20260507015603 | 11 | 290 | 0.0 | 3.2 | 0.00 | 1.52 | 0.30 | 92 | 1012.6 |
| 20260507015503 | 11 | 283 | 0.0 | 3.2 | 0.00 | 1.52 | 0.30 | 93 | 1012.6 |
| 20260507015403 | 11 | 283 | 0.0 | 3.2 | 0.00 | 1.52 | 0.30 | 93 | 1012.6 |
| 20260507015306 | 11 | 284 | 0.0 | 3.2 | 0.00 | 1.52 | 0.30 | 93 | 1012.7 |
| 20260507015203 | 11 | 284 | 0.0 | 3.2 | 0.00 | 1.52 | 0.30 | 93 | 1012.7 |
| 20260507015104 | 11 | 284 | 0.0 | 3.2 | 0.00 | 1.52 | 0.30 | 93 | 1012.7 |
| 20260507015004 | 11 | 282 | 0.0 | 1.6 | 0.00 | 1.52 | 0.30 | 93 | 1012.7 |
| 20260507014904 | 11 | 282 | 0.0 | 1.6 | 0.00 | 1.52 | 0.30 | 93 | 1012.7 |
| 20260507014803 | 11 | 284 | 0.0 | 6.4 | 0.00 | 1.52 | 0.30 | 93 | 1012.6 |
| 20260507014703 | 11 | 284 | 0.0 | 6.4 | 0.00 | 1.52 | 0.30 | 93 | 1012.6 |
| 20260507014603 | 11 | 284 | 0.0 | 6.4 | 0.00 | 1.52 | 0.30 | 93 | 1012.6 |
| 20260507014503 | 11 | 285 | 0.0 | 6.4 | 0.00 | 1.52 | 0.30 | 93 | 1012.6 |
| 20260507014403 | 11 | 285 | 0.0 | 6.4 | 0.00 | 1.52 | 0.30 | 93 | 1012.6 |
| 20260507014303 | 11 | 285 | 0.0 | 6.4 | 0.00 | 1.52 | 0.30 | 93 | 1012.6 |
| 20260507014203 | 11 | 285 | 0.0 | 6.4 | 0.00 | 1.52 | 0.30 | 93 | 1012.5 |
| 20260507014103 | 11 | 285 | 0.0 | 6.4 | 0.00 | 1.52 | 0.30 | 93 | 1012.5 |
| 20260507014003 | 11 | 285 | 0.0 | 6.4 | 0.00 | 1.52 | 0.30 | 93 | 1012.5 |
| 20260507013903 | 11 | 285 | 0.0 | 6.4 | 0.00 | 1.52 | 0.30 | 93 | 1012.5 |
| 20260507013804 | 11 | 284 | 0.0 | 3.2 | 0.00 | 1.52 | 0.30 | 93 | 1012.5 |
| 20260507013704 | 11 | 0 | 0.0 | 0.0 | 0.00 | 1.52 | 0.30 | 93 | 1012.6 |
| 20260507013604 | 11 | 0 | 0.0 | 0.0 | 0.00 | 1.52 | 0.30 | 93 | 1012.6 |
| 20260507013504 | 11 | 0 | 0.0 | 0.0 | 0.00 | 1.52 | 0.30 | 93 | 1012.5 |
| 20260507013403 | 11 | 0 | 0.0 | 0.0 | 0.00 | 1.52 | 0.30 | 93 | 1012.6 |
| 20260507013304 | 11 | 0 | 0.0 | 0.0 | 0.00 | 1.52 | 0.30 | 93 | 1012.6 |
| 20260507013204 | 11 | 0 | 0.0 | 0.0 | 0.00 | 1.52 | 0.30 | 93 | 1012.6 |
| 20260507013104 | 11 | 0 | 0.0 | 0.0 | 0.00 | 1.52 | 0.30 | 93 | 1012.6 |
| 20260507013004 | 11 | 0 | 0.0 | 0.0 | 0.00 | 1.52 | 0.30 | 93 | 1012.6 |
| 20260507012904 | 11 | 0 | 0.0 | 0.0 | 0.00 | 1.52 | 0.30 | 93 | 1012.5 |
| 20260507012804 | 11 | 0 | 0.0 | 0.0 | 0.00 | 1.52 | 0.30 | 93 | 1012.5 |
| 20260507012704 | 11 | 0 | 0.0 | 0.0 | 0.00 | 1.52 | 0.30 | 93 | 1012.6 |
| 20260507012604 | 11 | 0 | 0.0 | 0.0 | 0.00 | 1.52 | 0.30 | 93 | 1012.5 |
| 20260507012504 | 11 | 0 | 0.0 | 0.0 | 0.00 | 1.52 | 0.30 | 93 | 1012.5 |
| 20260507012404 | 11 | 0 | 0.0 | 0.0 | 0.00 | 1.52 | 0.30 | 93 | 1012.6 |
| 20260507012306 | 11 | 0 | 0.0 | 0.0 | 0.00 | 1.52 | 0.30 | 93 | 1012.6 |
| 20260507012204 | 11 | 0 | 0.0 | 0.0 | 0.00 | 1.52 | 0.30 | 93 | 1012.6 |
| 20260507012104 | 11 | 0 | 0.0 | 0.0 | 0.00 | 1.52 | 0.30 | 93 | 1012.7 |
| 20260507012004 | 11 | 0 | 0.0 | 0.0 | 0.00 | 1.52 | 0.30 | 93 | 1012.7 |
| 20260507011904 | 11 | 0 | 0.0 | 0.0 | 0.03 | 1.52 | 0.30 | 93 | 1012.6 |
| 20260507011804 | 11 | 0 | 0.0 | 0.0 | 0.03 | 1.52 | 0.30 | 93 | 1012.6 |
| 20260507011704 | 11 | 0 | 0.0 | 0.0 | 0.03 | 1.52 | 0.30 | 93 | 1012.7 |
| 20260507011604 | 11 | 0 | 0.0 | 0.0 | 0.03 | 1.52 | 0.30 | 93 | 1012.6 |
| 20260507011504 | 11 | 0 | 0.0 | 0.0 | 0.03 | 1.52 | 0.30 | 93 | 1012.6 |
| 20260507011403 | 11 | 0 | 0.0 | 0.0 | 0.03 | 1.52 | 0.30 | 93 | 1012.6 |
| 20260507011304 | 11 | 0 | 0.0 | 0.0 | 0.03 | 1.52 | 0.30 | 93 | 1012.6 |
| 20260507011203 | 11 | 0 | 0.0 | 0.0 | 0.03 | 1.52 | 0.30 | 93 | 1012.6 |
| 20260507011103 | 11 | 0 | 0.0 | 0.0 | 0.03 | 1.52 | 0.30 | 93 | 1012.6 |
| 20260507011004 | 11 | 0 | 0.0 | 0.0 | 0.03 | 1.52 | 0.30 | 93 | 1012.6 |
| 20260507010903 | 11 | 0 | 0.0 | 0.0 | 0.03 | 1.52 | 0.30 | 93 | 1012.6 |
| 20260507010803 | 11 | 0 | 0.0 | 0.0 | 0.03 | 1.52 | 0.30 | 93 | 1012.6 |
| 20260507010703 | 11 | 0 | 0.0 | 0.0 | 0.03 | 1.52 | 0.30 | 93 | 1012.6 |
| 20260507010604 | 11 | 0 | 0.0 | 0.0 | 0.03 | 1.52 | 0.30 | 93 | 1012.7 |
| 20260507010503 | 11 | 0 | 0.0 | 0.0 | 0.03 | 1.52 | 0.30 | 93 | 1012.7 |
| 20260507010403 | 11 | 0 | 0.0 | 0.0 | 0.03 | 1.52 | 0.30 | 93 | 1012.7 |
| 20260507010303 | 11 | 0 | 0.0 | 0.0 | 0.03 | 1.52 | 0.30 | 93 | 1012.7 |
| 20260507010203 | 11 | 0 | 0.0 | 0.0 | 0.03 | 1.52 | 0.30 | 93 | 1012.7 |
| 20260507010104 | 11 | 0 | 0.0 | 0.0 | 0.03 | 1.52 | 0.30 | 93 | 1012.7 |
| 20260507005903 | 11 | 0 | 0.0 | 0.0 | 0.03 | 1.52 | 0.30 | 93 | 1012.7 |
| 20260507005803 | 11 | 0 | 0.0 | 0.0 | 0.03 | 1.52 | 0.30 | 93 | 1012.7 |
| 20260507005703 | 11 | 0 | 0.0 | 0.0 | 0.03 | 1.52 | 0.30 | 93 | 1012.7 |
| 20260507005603 | 11 | 0 | 0.0 | 0.0 | 0.03 | 1.52 | 0.30 | 93 | 1012.7 |
| 20260507005503 | 11 | 0 | 0.0 | 0.0 | 0.03 | 1.52 | 0.30 | 93 | 1012.7 |
| 20260507005403 | 11 | 0 | 0.0 | 0.0 | 0.05 | 1.52 | 0.30 | 93 | 1012.7 |
| 20260507005305 | 11 | 0 | 0.0 | 0.0 | 0.05 | 1.52 | 0.30 | 92 | 1012.7 |
| 20260507005203 | 11 | 0 | 0.0 | 0.0 | 0.05 | 1.52 | 0.30 | 92 | 1012.7 |
| 20260507005103 | 11 | 0 | 0.0 | 0.0 | 0.05 | 1.52 | 0.30 | 92 | 1012.7 |
| 20260507005004 | 11 | 0 | 0.0 | 0.0 | 0.05 | 1.52 | 0.30 | 92 | 1012.6 |
| 20260507004903 | 11 | 0 | 0.0 | 0.0 | 0.18 | 1.52 | 0.30 | 92 | 1012.6 |
| 20260507004803 | 11 | 0 | 0.0 | 0.0 | 0.18 | 1.52 | 0.30 | 92 | 1012.6 |
| 20260507004703 | 11 | 0 | 0.0 | 0.0 | 0.18 | 1.52 | 0.30 | 92 | 1012.6 |
| 20260507004603 | 11 | 0 | 0.0 | 0.0 | 0.18 | 1.52 | 0.30 | 92 | 1012.6 |
| 20260507004503 | 11 | 0 | 0.0 | 0.0 | 0.18 | 1.52 | 0.30 | 92 | 1012.7 |
| 20260507004403 | 11 | 0 | 0.0 | 0.0 | 0.30 | 1.52 | 0.30 | 92 | 1012.7 |
| 20260507004303 | 11 | 0 | 0.0 | 0.0 | 0.30 | 1.52 | 0.30 | 92 | 1012.7 |
| 20260507004203 | 11 | 0 | 0.0 | 0.0 | 0.30 | 1.52 | 0.30 | 92 | 1012.7 |
| 20260507004103 | 11 | 0 | 0.0 | 0.0 | 0.30 | 1.52 | 0.30 | 92 | 1012.6 |
| 20260507004006 | 11 | 0 | 0.0 | 0.0 | 0.30 | 1.52 | 0.30 | 92 | 1012.6 |
| 20260507003903 | 11 | 0 | 0.0 | 0.0 | 0.30 | 1.52 | 0.30 | 92 | 1012.6 |
| 20260507003803 | 11 | 0 | 0.0 | 0.0 | 0.30 | 1.52 | 0.30 | 92 | 1012.6 |
| 20260507003503 | 11 | 0 | 0.0 | 0.0 | 0.30 | 1.52 | 0.30 | 92 | 1012.6 |
| 20260507003403 | 11 | 0 | 0.0 | 0.0 | 0.30 | 1.52 | 0.30 | 92 | 1012.6 |
| 20260507003303 | 11 | 0 | 0.0 | 0.0 | 0.30 | 1.52 | 0.30 | 91 | 1012.7 |
| 20260507003203 | 11 | 0 | 0.0 | 0.0 | 0.30 | 1.52 | 0.30 | 91 | 1012.7 |
| 20260507003103 | 11 | 0 | 0.0 | 0.0 | 0.30 | 1.52 | 0.30 | 91 | 1012.7 |
| 20260507003004 | 11 | 0 | 0.0 | 0.0 | 0.30 | 1.52 | 0.30 | 91 | 1012.6 |
| 20260507002903 | 11 | 0 | 0.0 | 0.0 | 0.30 | 1.52 | 0.30 | 91 | 1012.7 |
| 20260507002803 | 11 | 0 | 0.0 | 0.0 | 0.30 | 1.52 | 0.30 | 91 | 1012.7 |
| 20260507002703 | 11 | 0 | 0.0 | 0.0 | 0.30 | 1.52 | 0.30 | 91 | 1012.7 |
| 20260507002603 | 11 | 0 | 0.0 | 0.0 | 0.30 | 1.52 | 0.30 | 91 | 1012.7 |
| 20260507002503 | 11 | 0 | 0.0 | 0.0 | 0.30 | 1.52 | 0.30 | 91 | 1012.7 |
| 20260507002403 | 11 | 0 | 0.0 | 0.0 | 0.30 | 1.52 | 0.30 | 91 | 1012.7 |
| 20260507002306 | 11 | 0 | 0.0 | 0.0 | 0.30 | 1.52 | 0.30 | 91 | 1012.7 |
| 20260507002203 | 12 | 0 | 0.0 | 0.0 | 0.28 | 1.50 | 0.28 | 91 | 1012.7 |
| 20260507002103 | 12 | 0 | 0.0 | 0.0 | 0.28 | 1.50 | 0.28 | 91 | 1012.7 |
| 20260507002003 | 12 | 0 | 0.0 | 0.0 | 0.28 | 1.50 | 0.28 | 91 | 1012.7 |
| 20260507001903 | 12 | 0 | 0.0 | 0.0 | 0.28 | 1.50 | 0.28 | 91 | 1012.7 |
| 20260507001803 | 12 | 309 | 0.0 | 1.6 | 0.28 | 1.50 | 0.28 | 91 | 1012.7 |
| 20260507001703 | 12 | 308 | 0.0 | 1.6 | 0.28 | 1.50 | 0.28 | 90 | 1012.7 |
| 20260507001603 | 12 | 308 | 0.0 | 1.6 | 0.28 | 1.50 | 0.28 | 90 | 1012.7 |
| 20260507001503 | 12 | 308 | 0.0 | 1.6 | 0.28 | 1.50 | 0.28 | 90 | 1012.7 |
| 20260507001403 | 12 | 304 | 0.0 | 3.2 | 0.28 | 1.50 | 0.28 | 90 | 1012.7 |
| 20260507001303 | 12 | 303 | 0.0 | 3.2 | 0.28 | 1.50 | 0.28 | 90 | 1012.7 |
| 20260507001203 | 12 | 303 | 0.0 | 3.2 | 0.28 | 1.50 | 0.28 | 90 | 1012.7 |
| 20260507001103 | 12 | 303 | 0.0 | 3.2 | 0.28 | 1.50 | 0.28 | 90 | 1012.8 |
| 20260507001003 | 12 | 303 | 0.0 | 3.2 | 0.28 | 1.50 | 0.28 | 90 | 1012.8 |
| 20260507000903 | 12 | 303 | 0.0 | 3.2 | 0.28 | 1.50 | 0.28 | 90 | 1012.7 |
| 20260507000803 | 12 | 302 | 0.0 | 3.2 | 0.28 | 1.50 | 0.28 | 90 | 1012.7 |
| 20260507000703 | 12 | 298 | 0.0 | 3.2 | 0.28 | 1.50 | 0.28 | 90 | 1012.7 |
| 20260507000604 | 12 | 291 | 0.0 | 4.8 | 0.28 | 1.50 | 0.28 | 89 | 1012.7 |
| 20260507000505 | 12 | 291 | 0.0 | 4.8 | 0.28 | 1.50 | 0.28 | 89 | 1012.7 |
| 20260507000405 | 12 | 290 | 0.0 | 4.8 | 0.28 | 1.50 | 0.28 | 89 | 1012.6 |
| 20260507000306 | 12 | 289 | 0.0 | 4.8 | 0.28 | 1.50 | 0.28 | 89 | 1012.6 |
| 20260507000205 | 12 | 283 | 0.0 | 4.8 | 0.28 | 1.50 | 0.28 | 89 | 1012.6 |
| 20260507000104 | 12 | 283 | 0.0 | 4.8 | 0.28 | 1.50 | 0.28 | 89 | 1012.5 |
| 20260507000004 | 12 | 283 | 0.0 | 4.8 | 0.28 | 1.50 | 0.28 | 89 | 1012.5 |
| 20260506235904 | 12 | 283 | 0.0 | 4.8 | 0.28 | 1.50 | 0.28 | 89 | 1012.5 |
| 20260506235804 | 12 | 283 | 0.0 | 4.8 | 0.28 | 1.50 | 0.28 | 89 | 1012.5 |
| 20260506235704 | 12 | 283 | 0.0 | 4.8 | 0.28 | 1.50 | 0.28 | 89 | 1012.5 |
| 20260506235604 | 12 | 286 | 0.0 | 1.6 | 0.25 | 1.47 | 0.25 | 89 | 1012.6 |
| 20260506235504 | 12 | 278 | 0.0 | 6.4 | 0.25 | 1.47 | 0.25 | 89 | 1012.6 |
| 20260506235404 | 12 | 278 | 0.0 | 6.4 | 0.23 | 1.45 | 0.23 | 89 | 1012.6 |
| 20260506235306 | 12 | 277 | 0.0 | 6.4 | 0.23 | 1.45 | 0.23 | 88 | 1012.7 |
| 20260506235204 | 12 | 277 | 0.0 | 6.4 | 0.20 | 1.42 | 0.20 | 88 | 1012.7 |
| 20260506235104 | 12 | 277 | 0.0 | 6.4 | 0.18 | 1.40 | 0.18 | 88 | 1012.7 |
| 20260506235004 | 12 | 277 | 0.0 | 6.4 | 0.13 | 1.35 | 0.13 | 88 | 1012.7 |
| 20260506234904 | 12 | 277 | 0.0 | 6.4 | 0.10 | 1.32 | 0.10 | 88 | 1012.7 |
| 20260506234804 | 12 | 277 | 0.0 | 6.4 | 0.05 | 1.27 | 0.05 | 88 | 1012.7 |
| 20260506234704 | 12 | 277 | 0.0 | 6.4 | 0.05 | 1.27 | 0.05 | 88 | 1012.7 |
| 20260506234603 | 12 | 277 | 0.0 | 6.4 | 0.00 | 1.22 | 0.00 | 88 | 1012.7 |
| 20260506234504 | 12 | 280 | 0.0 | 3.2 | 0.00 | 1.22 | 0.00 | 88 | 1012.7 |
| 20260506234404 | 12 | 287 | 0.0 | 3.2 | 0.00 | 1.22 | 0.00 | 88 | 1012.7 |
| 20260506234303 | 12 | 287 | 0.0 | 3.2 | 0.00 | 1.22 | 0.00 | 88 | 1012.6 |
| 20260506234203 | 12 | 285 | 0.0 | 3.2 | 0.00 | 1.22 | 0.00 | 88 | 1012.6 |
| 20260506234103 | 12 | 285 | 0.0 | 3.2 | 0.00 | 1.22 | 0.00 | 88 | 1012.6 |
| 20260506234004 | 12 | 285 | 0.0 | 4.8 | 0.00 | 1.22 | 0.00 | 88 | 1012.6 |
| 20260506233903 | 12 | 285 | 1.6 | 9.7 | 0.00 | 1.22 | 0.00 | 88 | 1012.6 |
| 20260506233803 | 12 | 285 | 1.6 | 9.7 | 0.00 | 1.22 | 0.00 | 88 | 1012.5 |
| 20260506233703 | 12 | 285 | 1.6 | 9.7 | 0.00 | 1.22 | 0.00 | 88 | 1012.5 |
| 20260506233603 | 12 | 285 | 1.6 | 9.7 | 0.00 | 1.22 | 0.00 | 88 | 1012.5 |
| 20260506233503 | 12 | 285 | 1.6 | 9.7 | 0.00 | 1.22 | 0.00 | 88 | 1012.4 |
| 20260506233403 | 12 | 284 | 1.6 | 9.7 | 0.00 | 1.22 | 0.00 | 88 | 1012.4 |
| 20260506233303 | 12 | 284 | 1.6 | 9.7 | 0.00 | 1.22 | 0.00 | 88 | 1012.4 |
| 20260506233203 | 12 | 283 | 1.6 | 9.7 | 0.00 | 1.22 | 0.00 | 88 | 1012.4 |
| 20260506233103 | 12 | 283 | 1.6 | 9.7 | 0.00 | 1.22 | 0.00 | 88 | 1012.5 |
| 20260506233003 | 12 | 283 | 1.6 | 9.7 | 0.00 | 1.22 | 0.00 | 88 | 1012.5 |
| 20260506232903 | 12 | 283 | 1.6 | 8.0 | 0.00 | 1.22 | 0.00 | 88 | 1012.5 |
| 20260506232803 | 12 | 282 | 1.6 | 9.7 | 0.00 | 1.22 | 0.00 | 89 | 1012.5 |
| 20260506232703 | 12 | 282 | 1.6 | 11.3 | 0.00 | 1.22 | 0.00 | 89 | 1012.5 |
| 20260506232603 | 12 | 282 | 1.6 | 11.3 | 0.00 | 1.22 | 0.00 | 89 | 1012.5 |
| 20260506232503 | 12 | 282 | 1.6 | 11.3 | 0.00 | 1.22 | 0.00 | 89 | 1012.5 |
| 20260506232403 | 12 | 282 | 1.6 | 11.3 | 0.00 | 1.22 | 0.00 | 89 | 1012.5 |
| 20260506232306 | 12 | 282 | 1.6 | 11.3 | 0.00 | 1.22 | 0.00 | 89 | 1012.5 |
| 20260506232203 | 12 | 282 | 1.6 | 11.3 | 0.00 | 1.22 | 0.00 | 89 | 1012.5 |
| 20260506232103 | 12 | 282 | 1.6 | 11.3 | 0.00 | 1.22 | 0.00 | 89 | 1012.5 |
| 20260506232003 | 12 | 282 | 1.6 | 11.3 | 0.00 | 1.22 | 0.00 | 89 | 1012.5 |
| 20260506231903 | 12 | 280 | 0.0 | 11.3 | 0.00 | 1.22 | 0.00 | 89 | 1012.5 |
| 20260506231803 | 12 | 280 | 0.0 | 11.3 | 0.00 | 1.22 | 0.00 | 89 | 1012.5 |
| 20260506231703 | 12 | 0 | 0.0 | 0.0 | 0.00 | 1.22 | 0.00 | 89 | 1012.5 |
| 20260506231603 | 12 | 0 | 0.0 | 0.0 | 0.00 | 1.22 | 0.00 | 89 | 1012.5 |
| 20260506231503 | 12 | 0 | 0.0 | 0.0 | 0.00 | 1.22 | 0.00 | 89 | 1012.5 |
| 20260506231403 | 12 | 0 | 0.0 | 0.0 | 0.00 | 1.22 | 0.00 | 89 | 1012.5 |
| 20260506231303 | 12 | 0 | 0.0 | 0.0 | 0.00 | 1.22 | 0.00 | 89 | 1012.5 |
| 20260506231204 | 12 | 0 | 0.0 | 0.0 | 0.00 | 1.22 | 0.00 | 89 | 1012.5 |
| 20260506231104 | 12 | 0 | 0.0 | 0.0 | 0.00 | 1.22 | 0.00 | 89 | 1012.5 |
| 20260506231004 | 12 | 0 | 0.0 | 0.0 | 0.00 | 1.22 | 0.00 | 89 | 1012.4 |
| 20260506230904 | 12 | 0 | 0.0 | 0.0 | 0.00 | 1.22 | 0.00 | 89 | 1012.4 |
| 20260506230804 | 12 | 0 | 0.0 | 0.0 | 0.00 | 1.22 | 0.00 | 89 | 1012.4 |
| 20260506230704 | 12 | 0 | 0.0 | 0.0 | 0.00 | 1.22 | 0.00 | 89 | 1012.4 |
| 20260506230604 | 12 | 0 | 0.0 | 0.0 | 0.00 | 1.22 | 0.00 | 89 | 1012.4 |
| 20260506230504 | 12 | 0 | 0.0 | 0.0 | 0.00 | 1.22 | 0.00 | 89 | 1012.4 |
| 20260506230404 | 12 | 0 | 0.0 | 0.0 | 0.00 | 1.22 | 0.00 | 89 | 1012.4 |
| 20260506230304 | 12 | 284 | 0.0 | 1.6 | 0.00 | 1.22 | 0.00 | 89 | 1012.4 |
| 20260506230204 | 12 | 284 | 0.0 | 1.6 | 0.00 | 1.22 | 0.00 | 89 | 1012.4 |
| 20260506230104 | 12 | 284 | 0.0 | 3.2 | 0.00 | 1.22 | 0.00 | 89 | 1012.4 |
| 20260506230004 | 12 | 284 | 0.0 | 3.2 | 0.00 | 1.22 | 0.00 | 89 | 1012.3 |
| 20260506225904 | 12 | 284 | 0.0 | 4.8 | 0.00 | 1.22 | 0.00 | 89 | 1012.3 |
| 20260506225804 | 12 | 284 | 0.0 | 4.8 | 0.00 | 1.22 | 0.00 | 89 | 1012.3 |
| 20260506225704 | 12 | 287 | 1.6 | 8.0 | 0.00 | 1.22 | 0.00 | 89 | 1012.3 |
| 20260506225604 | 12 | 287 | 1.6 | 8.0 | 0.00 | 1.22 | 0.00 | 89 | 1012.3 |
| 20260506225504 | 12 | 286 | 1.6 | 8.0 | 0.00 | 1.22 | 0.00 | 89 | 1012.3 |
| 20260506225404 | 12 | 286 | 1.6 | 8.0 | 0.00 | 1.22 | 0.00 | 89 | 1012.2 |
| 20260506225305 | 12 | 286 | 1.6 | 8.0 | 0.00 | 1.22 | 0.00 | 89 | 1012.2 |
| 20260506225204 | 12 | 286 | 1.6 | 8.0 | 0.00 | 1.22 | 0.00 | 89 | 1012.2 |
| 20260506225103 | 12 | 286 | 1.6 | 8.0 | 0.00 | 1.22 | 0.00 | 89 | 1012.2 |
| 20260506225004 | 12 | 286 | 1.6 | 8.0 | 0.00 | 1.22 | 0.00 | 89 | 1012.2 |
| 20260506224903 | 12 | 286 | 1.6 | 8.0 | 0.00 | 1.22 | 0.00 | 89 | 1012.2 |
| 20260506224803 | 12 | 286 | 1.6 | 8.0 | 0.00 | 1.22 | 0.00 | 89 | 1012.2 |
| 20260506224703 | 12 | 285 | 1.6 | 4.8 | 0.00 | 1.22 | 0.00 | 89 | 1012.1 |
| 20260506224603 | 12 | 284 | 1.6 | 3.2 | 0.00 | 1.22 | 0.00 | 89 | 1012.2 |
| 20260506224503 | 12 | 285 | 1.6 | 6.4 | 0.00 | 1.22 | 0.00 | 89 | 1012.2 |
| 20260506224403 | 12 | 285 | 1.6 | 6.4 | 0.00 | 1.22 | 0.00 | 89 | 1012.1 |
| 20260506224303 | 12 | 286 | 1.6 | 6.4 | 0.00 | 1.22 | 0.00 | 89 | 1012.1 |
| 20260506224203 | 12 | 286 | 1.6 | 6.4 | 0.00 | 1.22 | 0.00 | 90 | 1012.2 |
| 20260506224103 | 12 | 287 | 1.6 | 6.4 | 0.00 | 1.22 | 0.00 | 90 | 1012.1 |
| 20260506224004 | 12 | 288 | 1.6 | 6.4 | 0.00 | 1.22 | 0.00 | 90 | 1012.1 |
| 20260506223903 | 12 | 288 | 1.6 | 6.4 | 0.00 | 1.22 | 0.00 | 90 | 1012.2 |
| 20260506223803 | 12 | 288 | 1.6 | 6.4 | 0.00 | 1.22 | 0.00 | 90 | 1012.0 |
| 20260506223703 | 12 | 288 | 1.6 | 6.4 | 0.00 | 1.22 | 0.00 | 90 | 1012.0 |
| 20260506223603 | 12 | 288 | 1.6 | 6.4 | 0.00 | 1.22 | 0.00 | 90 | 1012.0 |
| 20260506223503 | 12 | 288 | 0.0 | 4.8 | 0.00 | 1.22 | 0.00 | 90 | 1012.0 |
| 20260506223403 | 12 | 288 | 0.0 | 4.8 | 0.00 | 1.22 | 0.00 | 90 | 1012.0 |
| 20260506223303 | 12 | 288 | 0.0 | 4.8 | 0.00 | 1.22 | 0.00 | 90 | 1012.0 |
| 20260506223203 | 12 | 287 | 0.0 | 4.8 | 0.00 | 1.22 | 0.00 | 90 | 1012.0 |
| 20260506223103 | 12 | 287 | 0.0 | 3.2 | 0.00 | 1.22 | 0.00 | 90 | 1012.1 |
| 20260506223003 | 12 | 287 | 0.0 | 3.2 | 0.00 | 1.22 | 0.00 | 90 | 1012.1 |
| 20260506222903 | 12 | 0 | 0.0 | 0.0 | 0.00 | 1.22 | 0.00 | 90 | 1012.0 |
| 20260506222803 | 12 | 0 | 0.0 | 0.0 | 0.00 | 1.22 | 0.00 | 90 | 1012.1 |
| 20260506222703 | 12 | 0 | 0.0 | 0.0 | 0.00 | 1.22 | 0.00 | 90 | 1012.1 |
| 20260506222603 | 12 | 0 | 0.0 | 0.0 | 0.00 | 1.22 | 0.00 | 90 | 1012.1 |
| 20260506222503 | 12 | 0 | 0.0 | 0.0 | 0.00 | 1.22 | 0.00 | 90 | 1012.1 |
| 20260506222403 | 12 | 0 | 0.0 | 0.0 | 0.00 | 1.22 | 0.00 | 90 | 1012.1 |
| 20260506222305 | 12 | 0 | 0.0 | 0.0 | 0.00 | 1.22 | 0.00 | 90 | 1012.1 |
| 20260506222203 | 12 | 287 | 0.0 | 3.2 | 0.00 | 1.22 | 0.00 | 90 | 1012.1 |
| 20260506222103 | 12 | 287 | 0.0 | 3.2 | 0.00 | 1.22 | 0.00 | 90 | 1012.1 |
| 20260506222003 | 12 | 287 | 0.0 | 3.2 | 0.00 | 1.22 | 0.00 | 90 | 1012.2 |
| 20260506221903 | 12 | 287 | 0.0 | 3.2 | 0.00 | 1.22 | 0.00 | 90 | 1012.2 |
| 20260506221803 | 12 | 287 | 0.0 | 3.2 | 0.00 | 1.22 | 0.00 | 90 | 1012.1 |
| 20260506221703 | 12 | 287 | 0.0 | 3.2 | 0.00 | 1.22 | 0.00 | 90 | 1012.1 |
| 20260506221603 | 12 | 287 | 0.0 | 3.2 | 0.00 | 1.22 | 0.00 | 90 | 1012.1 |
| 20260506221504 | 12 | 287 | 0.0 | 3.2 | 0.00 | 1.22 | 0.00 | 90 | 1012.1 |
| 20260506221404 | 12 | 287 | 0.0 | 3.2 | 0.00 | 1.22 | 0.00 | 90 | 1012.1 |
| 20260506221304 | 12 | 287 | 0.0 | 3.2 | 0.00 | 1.22 | 0.00 | 90 | 1012.2 |
| 20260506221204 | 12 | 287 | 0.0 | 3.2 | 0.00 | 1.22 | 0.00 | 90 | 1012.2 |
| 20260506221104 | 12 | 287 | 0.0 | 1.6 | 0.00 | 1.22 | 0.00 | 90 | 1012.1 |
| 20260506221004 | 12 | 287 | 0.0 | 1.6 | 0.00 | 1.22 | 0.00 | 90 | 1012.1 |
| 20260506220904 | 12 | 287 | 0.0 | 1.6 | 0.00 | 1.22 | 0.00 | 90 | 1012.1 |
| 20260506220804 | 12 | 287 | 0.0 | 1.6 | 0.00 | 1.22 | 0.00 | 90 | 1012.1 |
| 20260506220704 | 12 | 287 | 0.0 | 1.6 | 0.00 | 1.22 | 0.00 | 90 | 1012.1 |
| 20260506220604 | 12 | 287 | 0.0 | 1.6 | 0.00 | 1.22 | 0.00 | 90 | 1012.1 |
| 20260506220504 | 12 | 287 | 0.0 | 1.6 | 0.00 | 1.22 | 0.00 | 90 | 1012.1 |
| 20260506220404 | 12 | 287 | 0.0 | 1.6 | 0.00 | 1.22 | 0.00 | 90 | 1012.1 |
| 20260506220304 | 12 | 287 | 0.0 | 1.6 | 0.00 | 1.22 | 0.00 | 90 | 1012.1 |
| 20260506220204 | 12 | 287 | 0.0 | 3.2 | 0.00 | 1.22 | 0.00 | 90 | 1012.1 |
| 20260506220103 | 12 | 287 | 0.0 | 3.2 | 0.00 | 1.22 | 0.00 | 90 | 1012.1 |
| 20260506220035 | 12 | 287 | 0.0 | 3.2 | 0.00 | 1.22 | 0.00 | 90 | 1012.1 |
| 20260506215903 | 12 | 287 | 0.0 | 3.2 | 0.00 | 1.22 | 1.22 | 90 | 1012.1 |
| 20260506215803 | 12 | 287 | 0.0 | 3.2 | 0.00 | 1.22 | 1.22 | 90 | 1012.1 |
| 20260506215703 | 12 | 287 | 0.0 | 3.2 | 0.00 | 1.22 | 1.22 | 90 | 1012.1 |
| 20260506215603 | 12 | 287 | 0.0 | 3.2 | 0.00 | 1.22 | 1.22 | 90 | 1012.1 |
| 20260506215503 | 12 | 287 | 0.0 | 3.2 | 0.00 | 1.22 | 1.22 | 90 | 1012.0 |
| 20260506215403 | 12 | 287 | 0.0 | 3.2 | 0.00 | 1.22 | 1.22 | 90 | 1012.0 |
| 20260506215306 | 12 | 287 | 0.0 | 3.2 | 0.00 | 1.22 | 1.22 | 90 | 1012.1 |
| 20260506215203 | 12 | 287 | 0.0 | 1.6 | 0.00 | 1.22 | 1.22 | 90 | 1012.0 |
| 20260506215103 | 12 | 0 | 0.0 | 0.0 | 0.00 | 1.22 | 1.22 | 90 | 1012.0 |
| 20260506215004 | 12 | 0 | 0.0 | 0.0 | 0.00 | 1.22 | 1.22 | 90 | 1012.0 |
| 20260506214903 | 12 | 0 | 0.0 | 0.0 | 0.00 | 1.22 | 1.22 | 90 | 1012.0 |
| 20260506214803 | 12 | 287 | 0.0 | 3.2 | 0.00 | 1.22 | 1.22 | 90 | 1012.0 |
| 20260506214703 | 12 | 287 | 0.0 | 6.4 | 0.00 | 1.22 | 1.22 | 90 | 1011.9 |
| 20260506214604 | 12 | 286 | 0.0 | 6.4 | 0.00 | 1.22 | 1.22 | 90 | 1011.9 |
| 20260506214503 | 12 | 286 | 1.6 | 6.4 | 0.00 | 1.22 | 1.22 | 90 | 1011.9 |
| 20260506214403 | 12 | 287 | 1.6 | 6.4 | 0.00 | 1.22 | 1.22 | 90 | 1012.0 |
| 20260506214303 | 12 | 287 | 1.6 | 6.4 | 0.00 | 1.22 | 1.22 | 90 | 1012.0 |
| 20260506214203 | 12 | 287 | 1.6 | 6.4 | 0.00 | 1.22 | 1.22 | 90 | 1012.0 |
| 20260506214103 | 12 | 287 | 3.2 | 8.0 | 0.00 | 1.22 | 1.22 | 90 | 1012.0 |
| 20260506214003 | 12 | 287 | 3.2 | 8.0 | 0.00 | 1.22 | 1.22 | 90 | 1012.0 |
| 20260506213903 | 12 | 287 | 3.2 | 8.0 | 0.00 | 1.22 | 1.22 | 90 | 1011.9 |
| 20260506213803 | 12 | 287 | 3.2 | 8.0 | 0.00 | 1.22 | 1.22 | 90 | 1011.9 |
| 20260506213703 | 12 | 287 | 3.2 | 8.0 | 0.00 | 1.22 | 1.22 | 90 | 1011.9 |
| 20260506213603 | 12 | 287 | 3.2 | 8.0 | 0.00 | 1.22 | 1.22 | 90 | 1011.9 |
| 20260506213503 | 12 | 288 | 3.2 | 8.0 | 0.00 | 1.22 | 1.22 | 90 | 1012.0 |
| 20260506213403 | 12 | 287 | 3.2 | 8.0 | 0.00 | 1.22 | 1.22 | 90 | 1012.0 |
| 20260506213303 | 12 | 288 | 3.2 | 8.0 | 0.00 | 1.22 | 1.22 | 90 | 1012.0 |
| 20260506213203 | 12 | 287 | 3.2 | 8.0 | 0.00 | 1.22 | 1.22 | 90 | 1012.0 |
| 20260506213103 | 12 | 287 | 3.2 | 6.4 | 0.00 | 1.22 | 1.22 | 90 | 1012.0 |
| 20260506213003 | 12 | 287 | 3.2 | 6.4 | 0.00 | 1.22 | 1.22 | 90 | 1012.0 |
| 20260506212903 | 12 | 287 | 3.2 | 6.4 | 0.00 | 1.22 | 1.22 | 89 | 1012.0 |
| 20260506212803 | 12 | 287 | 1.6 | 6.4 | 0.00 | 1.22 | 1.22 | 89 | 1012.0 |
| 20260506212703 | 12 | 287 | 1.6 | 6.4 | 0.00 | 1.22 | 1.22 | 89 | 1012.0 |
| 20260506212603 | 12 | 287 | 1.6 | 6.4 | 0.00 | 1.22 | 1.22 | 89 | 1012.0 |
| 20260506212503 | 12 | 287 | 1.6 | 6.4 | 0.00 | 1.22 | 1.22 | 90 | 1012.0 |
| 20260506212404 | 12 | 287 | 1.6 | 6.4 | 0.00 | 1.22 | 1.22 | 90 | 1012.1 |
| 20260506212306 | 12 | 287 | 1.6 | 6.4 | 0.00 | 1.22 | 1.22 | 90 | 1012.1 |
| 20260506212204 | 12 | 287 | 1.6 | 6.4 | 0.00 | 1.22 | 1.22 | 90 | 1012.0 |
| 20260506212104 | 12 | 287 | 1.6 | 6.4 | 0.00 | 1.22 | 1.22 | 90 | 1012.0 |
| 20260506212004 | 12 | 288 | 1.6 | 6.4 | 0.00 | 1.22 | 1.22 | 90 | 1012.0 |
| 20260506211904 | 12 | 288 | 1.6 | 6.4 | 0.00 | 1.22 | 1.22 | 90 | 1012.0 |
| 20260506211804 | 12 | 288 | 1.6 | 6.4 | 0.00 | 1.22 | 1.22 | 90 | 1012.0 |
| 20260506211704 | 12 | 289 | 1.6 | 6.4 | 0.00 | 1.22 | 1.22 | 90 | 1012.1 |
| 20260506211604 | 12 | 289 | 1.6 | 6.4 | 0.00 | 1.22 | 1.22 | 90 | 1012.1 |
| 20260506211504 | 12 | 289 | 1.6 | 6.4 | 0.00 | 1.22 | 1.22 | 90 | 1012.1 |
| 20260506211404 | 12 | 289 | 1.6 | 6.4 | 0.00 | 1.22 | 1.22 | 90 | 1012.1 |
| 20260506211304 | 12 | 290 | 1.6 | 6.4 | 0.00 | 1.22 | 1.22 | 90 | 1012.2 |
| 20260506211204 | 12 | 290 | 1.6 | 4.8 | 0.00 | 1.22 | 1.22 | 90 | 1012.2 |
| 20260506211104 | 12 | 292 | 1.6 | 4.8 | 0.00 | 1.22 | 1.22 | 90 | 1012.0 |
| 20260506211004 | 12 | 293 | 1.6 | 4.8 | 0.00 | 1.22 | 1.22 | 90 | 1012.0 |
| 20260506210904 | 12 | 293 | 1.6 | 4.8 | 0.00 | 1.22 | 1.22 | 90 | 1012.1 |
| 20260506210804 | 12 | 293 | 1.6 | 4.8 | 0.00 | 1.22 | 1.22 | 90 | 1012.1 |
| 20260506210704 | 12 | 293 | 1.6 | 8.0 | 0.00 | 1.22 | 1.22 | 90 | 1012.1 |
| 20260506210604 | 12 | 292 | 1.6 | 8.0 | 0.00 | 1.22 | 1.22 | 90 | 1012.0 |
| 20260506210504 | 12 | 291 | 1.6 | 8.0 | 0.00 | 1.22 | 1.22 | 90 | 1012.0 |
| 20260506210404 | 12 | 291 | 3.2 | 8.0 | 0.00 | 1.22 | 1.22 | 90 | 1012.0 |
| 20260506210304 | 12 | 290 | 3.2 | 8.0 | 0.00 | 1.22 | 1.22 | 90 | 1012.0 |
| 20260506210204 | 12 | 290 | 3.2 | 8.0 | 0.00 | 1.22 | 1.22 | 90 | 1012.0 |
| 20260506210104 | 12 | 288 | 3.2 | 8.0 | 0.00 | 1.22 | 1.22 | 90 | 1011.9 |
| 20260506210004 | 12 | 288 | 3.2 | 8.0 | 0.00 | 1.22 | 1.22 | 90 | 1012.0 |
| 20260506205903 | 12 | 288 | 3.2 | 8.0 | 0.00 | 1.22 | 1.22 | 90 | 1012.0 |
| 20260506205803 | 12 | 288 | 3.2 | 8.0 | 0.00 | 1.22 | 1.22 | 90 | 1012.0 |
| 20260506205703 | 12 | 288 | 1.6 | 6.4 | 0.00 | 1.22 | 1.22 | 90 | 1012.0 |
| 20260506205603 | 12 | 289 | 1.6 | 6.4 | 0.00 | 1.22 | 1.22 | 90 | 1012.0 |
| 20260506205503 | 12 | 290 | 1.6 | 6.4 | 0.00 | 1.22 | 1.22 | 90 | 1011.9 |
| 20260506205403 | 12 | 289 | 1.6 | 9.7 | 0.00 | 1.22 | 1.22 | 90 | 1011.9 |
| 20260506205306 | 12 | 288 | 3.2 | 9.7 | 0.00 | 1.22 | 1.22 | 90 | 1011.9 |
| 20260506205203 | 12 | 288 | 3.2 | 9.7 | 0.00 | 1.22 | 1.22 | 90 | 1011.9 |
| 20260506205103 | 12 | 288 | 3.2 | 9.7 | 0.00 | 1.22 | 1.22 | 90 | 1011.9 |
| 20260506205004 | 12 | 288 | 3.2 | 9.7 | 0.00 | 1.22 | 1.22 | 90 | 1011.8 |
| 20260506204903 | 12 | 288 | 3.2 | 9.7 | 0.00 | 1.22 | 1.22 | 90 | 1011.8 |
| 20260506204803 | 12 | 289 | 3.2 | 9.7 | 0.00 | 1.22 | 1.22 | 90 | 1011.8 |
| 20260506204703 | 12 | 289 | 3.2 | 9.7 | 0.00 | 1.22 | 1.22 | 90 | 1011.8 |
| 20260506204603 | 12 | 288 | 3.2 | 9.7 | 0.00 | 1.22 | 1.22 | 90 | 1011.7 |
| 20260506204503 | 12 | 289 | 3.2 | 9.7 | 0.00 | 1.22 | 1.22 | 90 | 1011.7 |
| 20260506204403 | 12 | 289 | 3.2 | 9.7 | 0.00 | 1.22 | 1.22 | 90 | 1011.7 |
| 20260506204303 | 12 | 291 | 3.2 | 9.7 | 0.00 | 1.22 | 1.22 | 90 | 1011.7 |
| 20260506204203 | 12 | 293 | 3.2 | 9.7 | 0.00 | 1.22 | 1.22 | 90 | 1011.7 |
| 20260506204103 | 12 | 296 | 3.2 | 9.7 | 0.00 | 1.22 | 1.22 | 90 | 1011.7 |
| 20260506204003 | 12 | 300 | 3.2 | 8.0 | 0.00 | 1.22 | 1.22 | 90 | 1011.8 |
| 20260506203903 | 12 | 301 | 3.2 | 8.0 | 0.00 | 1.22 | 1.22 | 90 | 1011.8 |
| 20260506203803 | 12 | 300 | 3.2 | 8.0 | 0.00 | 1.22 | 1.22 | 90 | 1011.7 |
| 20260506203703 | 12 | 299 | 3.2 | 8.0 | 0.00 | 1.22 | 1.22 | 90 | 1011.7 |
| 20260506203603 | 12 | 298 | 3.2 | 8.0 | 0.00 | 1.22 | 1.22 | 90 | 1011.7 |
| 20260506203503 | 12 | 297 | 3.2 | 9.7 | 0.00 | 1.22 | 1.22 | 90 | 1011.7 |
| 20260506203403 | 12 | 295 | 4.8 | 9.7 | 0.00 | 1.22 | 1.22 | 90 | 1011.7 |
| 20260506203303 | 12 | 294 | 4.8 | 9.7 | 0.00 | 1.22 | 1.22 | 90 | 1011.7 |
| 20260506203203 | 12 | 293 | 4.8 | 9.7 | 0.00 | 1.22 | 1.22 | 89 | 1011.7 |
| 20260506203103 | 12 | 291 | 4.8 | 9.7 | 0.00 | 1.22 | 1.22 | 89 | 1011.7 |
| 20260506203003 | 12 | 289 | 4.8 | 9.7 | 0.00 | 1.22 | 1.22 | 89 | 1011.7 |
| 20260506202903 | 12 | 287 | 4.8 | 9.7 | 0.00 | 1.22 | 1.22 | 89 | 1011.5 |
| 20260506202803 | 12 | 287 | 4.8 | 9.7 | 0.00 | 1.22 | 1.22 | 89 | 1011.5 |
| 20260506202703 | 12 | 287 | 4.8 | 9.7 | 0.00 | 1.22 | 1.22 | 89 | 1011.5 |
| 20260506202603 | 12 | 287 | 4.8 | 11.3 | 0.00 | 1.22 | 1.22 | 89 | 1011.5 |
| 20260506202504 | 12 | 287 | 4.8 | 11.3 | 0.00 | 1.22 | 1.22 | 89 | 1011.5 |
| 20260506202403 | 12 | 287 | 4.8 | 11.3 | 0.00 | 1.22 | 1.22 | 89 | 1011.5 |
| 20260506202306 | 12 | 286 | 4.8 | 11.3 | 0.00 | 1.22 | 1.22 | 89 | 1011.5 |
| 20260506202203 | 12 | 286 | 4.8 | 11.3 | 0.00 | 1.22 | 1.22 | 89 | 1011.6 |
| 20260506202104 | 12 | 286 | 4.8 | 11.3 | 0.00 | 1.22 | 1.22 | 89 | 1011.6 |
| 20260506202004 | 12 | 286 | 4.8 | 11.3 | 0.00 | 1.22 | 1.22 | 89 | 1011.6 |
| 20260506201904 | 12 | 287 | 4.8 | 11.3 | 0.00 | 1.22 | 1.22 | 89 | 1011.5 |
| 20260506201804 | 12 | 287 | 4.8 | 11.3 | 0.00 | 1.22 | 1.22 | 89 | 1011.5 |
| 20260506201704 | 12 | 287 | 4.8 | 11.3 | 0.00 | 1.22 | 1.22 | 90 | 1011.5 |
| 20260506201604 | 12 | 287 | 4.8 | 9.7 | 0.00 | 1.22 | 1.22 | 90 | 1011.5 |
| 20260506201504 | 12 | 287 | 4.8 | 9.7 | 0.00 | 1.22 | 1.22 | 90 | 1011.6 |
| 20260506201404 | 12 | 287 | 4.8 | 9.7 | 0.00 | 1.22 | 1.22 | 90 | 1011.5 |
| 20260506201304 | 12 | 288 | 4.8 | 9.7 | 0.00 | 1.22 | 1.22 | 90 | 1011.5 |
| 20260506201204 | 12 | 288 | 4.8 | 9.7 | 0.00 | 1.22 | 1.22 | 90 | 1011.5 |
| 20260506201104 | 12 | 288 | 4.8 | 9.7 | 0.00 | 1.22 | 1.22 | 89 | 1011.5 |
| 20260506201004 | 12 | 288 | 4.8 | 9.7 | 0.00 | 1.22 | 1.22 | 89 | 1011.5 |
| 20260506200904 | 12 | 290 | 4.8 | 9.7 | 0.00 | 1.22 | 1.22 | 89 | 1011.4 |
| 20260506200804 | 12 | 290 | 4.8 | 9.7 | 0.00 | 1.22 | 1.22 | 89 | 1011.4 |
| 20260506200704 | 12 | 291 | 3.2 | 9.7 | 0.00 | 1.22 | 1.22 | 89 | 1011.5 |
| 20260506200604 | 12 | 291 | 3.2 | 9.7 | 0.00 | 1.22 | 1.22 | 89 | 1011.5 |
| 20260506200504 | 12 | 291 | 3.2 | 9.7 | 0.00 | 1.22 | 1.22 | 89 | 1011.5 |
| 20260506200404 | 12 | 295 | 3.2 | 9.7 | 0.00 | 1.22 | 1.22 | 89 | 1011.5 |
| 20260506200304 | 12 | 299 | 4.8 | 9.7 | 0.00 | 1.22 | 1.22 | 89 | 1011.5 |
| 20260506200204 | 12 | 310 | 3.2 | 8.0 | 0.00 | 1.22 | 1.22 | 89 | 1011.5 |
| 20260506200104 | 12 | 310 | 3.2 | 8.0 | 0.00 | 1.22 | 1.22 | 89 | 1011.5 |
| 20260506200004 | 12 | 309 | 3.2 | 8.0 | 0.00 | 1.22 | 1.22 | 89 | 1011.5 |
| 20260506195903 | 12 | 308 | 3.2 | 8.0 | 0.00 | 1.22 | 1.22 | 90 | 1011.5 |
| 20260506195803 | 12 | 306 | 3.2 | 11.3 | 0.00 | 1.22 | 1.22 | 90 | 1011.5 |
| 20260506195703 | 12 | 303 | 4.8 | 14.5 | 0.00 | 1.22 | 1.22 | 90 | 1011.5 |
| 20260506195603 | 12 | 302 | 4.8 | 14.5 | 0.00 | 1.22 | 1.22 | 90 | 1011.5 |
| 20260506195503 | 12 | 301 | 4.8 | 14.5 | 0.00 | 1.22 | 1.22 | 90 | 1011.5 |
| 20260506195403 | 12 | 297 | 4.8 | 14.5 | 0.00 | 1.22 | 1.22 | 90 | 1011.5 |
| 20260506195306 | 12 | 292 | 4.8 | 14.5 | 0.00 | 1.22 | 1.22 | 90 | 1011.5 |
| 20260506195203 | 12 | 285 | 4.8 | 14.5 | 0.00 | 1.22 | 1.22 | 90 | 1011.5 |
| 20260506195103 | 12 | 285 | 3.2 | 14.5 | 0.00 | 1.22 | 1.22 | 90 | 1011.4 |
| 20260506195003 | 12 | 285 | 3.2 | 14.5 | 0.00 | 1.22 | 1.22 | 90 | 1011.4 |
| 20260506194903 | 12 | 285 | 3.2 | 14.5 | 0.00 | 1.22 | 1.22 | 90 | 1011.4 |
| 20260506194803 | 12 | 286 | 3.2 | 14.5 | 0.00 | 1.22 | 1.22 | 90 | 1011.3 |
| 20260506194703 | 12 | 285 | 1.6 | 6.4 | 0.00 | 1.22 | 1.22 | 90 | 1011.3 |
| 20260506194603 | 12 | 285 | 1.6 | 4.8 | 0.00 | 1.22 | 1.22 | 89 | 1011.4 |
| 20260506194503 | 12 | 286 | 3.2 | 11.3 | 0.00 | 1.22 | 1.22 | 89 | 1011.4 |
| 20260506194403 | 12 | 287 | 3.2 | 11.3 | 0.00 | 1.22 | 1.22 | 89 | 1011.3 |
| 20260506194303 | 12 | 289 | 1.6 | 11.3 | 0.00 | 1.22 | 1.22 | 89 | 1011.3 |
| 20260506194203 | 12 | 288 | 1.6 | 11.3 | 0.00 | 1.22 | 1.22 | 89 | 1011.3 |
| 20260506194103 | 12 | 289 | 1.6 | 11.3 | 0.00 | 1.22 | 1.22 | 89 | 1011.2 |
| 20260506194003 | 12 | 289 | 1.6 | 11.3 | 0.00 | 1.22 | 1.22 | 89 | 1011.2 |
| 20260506193903 | 12 | 289 | 1.6 | 11.3 | 0.00 | 1.22 | 1.22 | 89 | 1011.1 |
| 20260506193803 | 12 | 289 | 1.6 | 11.3 | 0.00 | 1.22 | 1.22 | 89 | 1011.2 |
| 20260506193703 | 12 | 289 | 1.6 | 11.3 | 0.00 | 1.22 | 1.22 | 89 | 1011.2 |
| 20260506193603 | 12 | 289 | 1.6 | 11.3 | 0.00 | 1.22 | 1.22 | 89 | 1011.2 |
| 20260506193503 | 12 | 289 | 1.6 | 6.4 | 0.00 | 1.22 | 1.22 | 89 | 1011.2 |
| 20260506193403 | 12 | 289 | 1.6 | 8.0 | 0.00 | 1.22 | 1.22 | 89 | 1011.2 |
| 20260506193303 | 12 | 288 | 1.6 | 8.0 | 0.00 | 1.22 | 1.22 | 89 | 1011.0 |
| 20260506193203 | 12 | 287 | 3.2 | 9.7 | 0.00 | 1.22 | 1.22 | 89 | 1011.0 |
| 20260506193103 | 12 | 287 | 3.2 | 9.7 | 0.00 | 1.22 | 1.22 | 89 | 1011.1 |
| 20260506193003 | 12 | 287 | 3.2 | 9.7 | 0.00 | 1.22 | 1.22 | 89 | 1011.0 |
| 20260506192903 | 12 | 287 | 3.2 | 9.7 | 0.00 | 1.22 | 1.22 | 89 | 1011.0 |
| 20260506192804 | 12 | 287 | 3.2 | 9.7 | 0.00 | 1.22 | 1.22 | 89 | 1011.0 |
| 20260506192704 | 12 | 287 | 3.2 | 9.7 | 0.00 | 1.22 | 1.22 | 89 | 1011.0 |
| 20260506192604 | 12 | 287 | 3.2 | 9.7 | 0.00 | 1.22 | 1.22 | 89 | 1011.0 |
| 20260506192504 | 12 | 287 | 3.2 | 9.7 | 0.00 | 1.22 | 1.22 | 89 | 1010.9 |
| 20260506192404 | 12 | 287 | 3.2 | 9.7 | 0.00 | 1.22 | 1.22 | 89 | 1010.9 |
| 20260506192305 | 12 | 287 | 1.6 | 9.7 | 0.00 | 1.22 | 1.22 | 89 | 1010.8 |
| 20260506192204 | 12 | 288 | 1.6 | 6.4 | 0.00 | 1.22 | 1.22 | 90 | 1010.8 |
| 20260506192104 | 12 | 289 | 1.6 | 6.4 | 0.00 | 1.22 | 1.22 | 90 | 1010.8 |
| 20260506192004 | 12 | 291 | 1.6 | 6.4 | 0.00 | 1.22 | 1.22 | 90 | 1010.8 |
| 20260506191904 | 12 | 293 | 1.6 | 4.8 | 0.00 | 1.22 | 1.22 | 89 | 1010.8 |
| 20260506191804 | 12 | 294 | 1.6 | 4.8 | 0.00 | 1.22 | 1.22 | 89 | 1010.9 |
| 20260506191704 | 12 | 294 | 1.6 | 9.7 | 0.00 | 1.22 | 1.22 | 89 | 1010.8 |
| 20260506191604 | 12 | 293 | 1.6 | 9.7 | 0.00 | 1.22 | 1.22 | 89 | 1010.8 |
| 20260506191504 | 12 | 291 | 3.2 | 11.3 | 0.00 | 1.22 | 1.22 | 89 | 1010.8 |
| 20260506191404 | 12 | 290 | 3.2 | 12.9 | 0.00 | 1.22 | 1.22 | 89 | 1010.8 |
| 20260506191304 | 12 | 290 | 3.2 | 12.9 | 0.00 | 1.22 | 1.22 | 89 | 1010.7 |
| 20260506191204 | 12 | 289 | 4.8 | 12.9 | 0.00 | 1.22 | 1.22 | 89 | 1010.6 |
| 20260506191104 | 12 | 289 | 4.8 | 12.9 | 0.03 | 1.22 | 1.22 | 89 | 1010.6 |
| 20260506191004 | 12 | 288 | 4.8 | 12.9 | 0.03 | 1.22 | 1.22 | 89 | 1010.5 |
| 20260506190904 | 12 | 288 | 6.4 | 12.9 | 0.03 | 1.22 | 1.22 | 89 | 1010.5 |
| 20260506190804 | 12 | 287 | 6.4 | 12.9 | 0.03 | 1.22 | 1.22 | 89 | 1010.5 |
| 20260506190703 | 12 | 287 | 6.4 | 12.9 | 0.03 | 1.22 | 1.22 | 89 | 1010.5 |
| 20260506190603 | 12 | 287 | 6.4 | 12.9 | 0.03 | 1.22 | 1.22 | 89 | 1010.5 |
| 20260506190504 | 12 | 287 | 4.8 | 12.9 | 0.03 | 1.22 | 1.22 | 89 | 1010.5 |
| 20260506190403 | 12 | 287 | 4.8 | 14.5 | 0.03 | 1.22 | 1.22 | 89 | 1010.4 |
| 20260506190303 | 12 | 287 | 4.8 | 14.5 | 0.03 | 1.22 | 1.22 | 89 | 1010.4 |
| 20260506190204 | 12 | 287 | 4.8 | 14.5 | 0.03 | 1.22 | 1.22 | 90 | 1010.3 |
| 20260506190103 | 12 | 288 | 4.8 | 14.5 | 0.03 | 1.22 | 1.22 | 90 | 1010.3 |
| 20260506190004 | 12 | 287 | 4.8 | 14.5 | 0.03 | 1.22 | 1.22 | 90 | 1010.4 |
| 20260506185903 | 12 | 287 | 4.8 | 14.5 | 0.03 | 1.22 | 1.22 | 90 | 1010.3 |
| 20260506185803 | 12 | 287 | 3.2 | 14.5 | 0.03 | 1.22 | 1.22 | 90 | 1010.3 |
| 20260506185703 | 12 | 287 | 3.2 | 14.5 | 0.03 | 1.22 | 1.22 | 90 | 1010.3 |
| 20260506185603 | 12 | 288 | 3.2 | 14.5 | 0.05 | 1.22 | 1.22 | 90 | 1010.3 |
| 20260506185503 | 12 | 288 | 3.2 | 14.5 | 0.05 | 1.22 | 1.22 | 90 | 1010.2 |
| 20260506185403 | 12 | 288 | 3.2 | 9.7 | 0.05 | 1.22 | 1.22 | 90 | 1010.2 |
| 20260506185306 | 12 | 288 | 3.2 | 11.3 | 0.08 | 1.22 | 1.22 | 90 | 1010.2 |
| 20260506185203 | 12 | 289 | 3.2 | 11.3 | 0.13 | 1.22 | 1.22 | 91 | 1010.0 |
| 20260506185103 | 12 | 288 | 3.2 | 11.3 | 0.15 | 1.22 | 1.22 | 91 | 1010.0 |
| 20260506185003 | 12 | 289 | 3.2 | 11.3 | 0.18 | 1.22 | 1.22 | 91 | 1010.0 |
| 20260506184903 | 12 | 289 | 3.2 | 11.3 | 0.23 | 1.22 | 1.22 | 91 | 1009.9 |
| 20260506184803 | 12 | 289 | 4.8 | 11.3 | 0.25 | 1.22 | 1.22 | 91 | 1009.9 |
| 20260506184703 | 12 | 290 | 4.8 | 11.3 | 0.33 | 1.22 | 1.22 | 91 | 1009.9 |
| 20260506184603 | 12 | 290 | 4.8 | 11.3 | 0.41 | 1.22 | 1.22 | 91 | 1009.9 |
| 20260506184503 | 12 | 290 | 4.8 | 11.3 | 0.41 | 1.22 | 1.22 | 91 | 1009.9 |
| 20260506184403 | 12 | 290 | 4.8 | 11.3 | 0.48 | 1.22 | 1.22 | 91 | 1009.8 |
| 20260506184303 | 12 | 290 | 4.8 | 12.9 | 0.64 | 1.22 | 1.22 | 91 | 1009.8 |
| 20260506184203 | 12 | 289 | 4.8 | 14.5 | 0.69 | 1.22 | 1.22 | 91 | 1009.8 |
| 20260506184103 | 12 | 289 | 4.8 | 14.5 | 0.74 | 1.22 | 1.22 | 91 | 1009.8 |
| 20260506184003 | 12 | 289 | 4.8 | 14.5 | 0.76 | 1.22 | 1.22 | 91 | 1009.8 |
| 20260506183903 | 12 | 289 | 4.8 | 14.5 | 0.79 | 1.22 | 1.22 | 91 | 1009.8 |
| 20260506183803 | 12 | 289 | 3.2 | 14.5 | 0.84 | 1.22 | 1.22 | 91 | 1009.8 |
| 20260506183703 | 12 | 287 | 3.2 | 14.5 | 0.84 | 1.22 | 1.22 | 91 | 1009.8 |
| 20260506183603 | 12 | 286 | 3.2 | 14.5 | 0.84 | 1.22 | 1.22 | 91 | 1009.7 |
| 20260506183503 | 12 | 286 | 3.2 | 14.5 | 0.86 | 1.22 | 1.22 | 91 | 1009.7 |
| 20260506183403 | 12 | 286 | 3.2 | 14.5 | 0.86 | 1.22 | 1.22 | 91 | 1009.8 |
| 20260506183303 | 12 | 286 | 3.2 | 14.5 | 0.86 | 1.22 | 1.22 | 91 | 1009.7 |
| 20260506183204 | 12 | 286 | 3.2 | 9.7 | 0.86 | 1.22 | 1.22 | 91 | 1009.7 |
| 20260506183104 | 12 | 285 | 3.2 | 9.7 | 0.86 | 1.22 | 1.22 | 91 | 1009.7 |
| 20260506183005 | 12 | 285 | 3.2 | 9.7 | 0.86 | 1.22 | 1.22 | 91 | 1009.7 |
| 20260506182903 | 12 | 288 | 3.2 | 9.7 | 0.86 | 1.22 | 1.22 | 91 | 1009.6 |
| 20260506182804 | 12 | 289 | 3.2 | 9.7 | 0.86 | 1.22 | 1.22 | 91 | 1009.4 |
| 20260506182704 | 12 | 291 | 3.2 | 9.7 | 0.86 | 1.22 | 1.22 | 91 | 1009.4 |
| 20260506182604 | 12 | 294 | 3.2 | 12.9 | 0.86 | 1.22 | 1.22 | 90 | 1009.4 |
| 20260506182504 | 13 | 296 | 3.2 | 14.5 | 0.86 | 1.22 | 1.22 | 90 | 1009.4 |
| 20260506182404 | 13 | 300 | 4.8 | 14.5 | 0.86 | 1.22 | 1.22 | 90 | 1009.3 |
| 20260506182306 | 13 | 303 | 4.8 | 16.1 | 0.86 | 1.22 | 1.22 | 90 | 1009.2 |
| 20260506182204 | 13 | 304 | 4.8 | 16.1 | 0.89 | 1.22 | 1.22 | 90 | 1009.2 |
| 20260506182104 | 13 | 306 | 4.8 | 16.1 | 0.89 | 1.22 | 1.22 | 90 | 1009.1 |
| 20260506182004 | 13 | 305 | 6.4 | 16.1 | 0.89 | 1.22 | 1.22 | 90 | 1009.1 |
| 20260506181904 | 13 | 305 | 6.4 | 16.1 | 0.89 | 1.22 | 1.22 | 90 | 1009.1 |
| 20260506181804 | 13 | 304 | 6.4 | 16.1 | 0.89 | 1.22 | 1.22 | 90 | 1008.9 |
| 20260506181704 | 13 | 304 | 6.4 | 16.1 | 0.89 | 1.22 | 1.22 | 90 | 1008.9 |
| 20260506181603 | 13 | 303 | 6.4 | 16.1 | 0.89 | 1.22 | 1.22 | 90 | 1008.9 |
| 20260506181504 | 13 | 302 | 6.4 | 16.1 | 0.89 | 1.22 | 1.22 | 90 | 1008.9 |
| 20260506181403 | 13 | 301 | 6.4 | 16.1 | 0.89 | 1.22 | 1.22 | 90 | 1008.9 |
| 20260506181303 | 13 | 299 | 6.4 | 14.5 | 0.89 | 1.22 | 1.22 | 90 | 1008.9 |
| 20260506181203 | 13 | 298 | 4.8 | 14.5 | 0.86 | 1.19 | 1.19 | 90 | 1008.9 |
| 20260506181103 | 13 | 295 | 4.8 | 14.5 | 0.86 | 1.19 | 1.19 | 90 | 1009.1 |
| 20260506181004 | 13 | 294 | 4.8 | 16.1 | 0.86 | 1.19 | 1.19 | 90 | 1009.1 |
| 20260506180903 | 13 | 293 | 4.8 | 16.1 | 0.89 | 1.19 | 1.19 | 90 | 1009.1 |
| 20260506180803 | 13 | 292 | 4.8 | 16.1 | 0.89 | 1.19 | 1.19 | 90 | 1009.2 |
| 20260506180703 | 13 | 291 | 4.8 | 16.1 | 0.89 | 1.19 | 1.19 | 90 | 1009.2 |
| 20260506180603 | 13 | 289 | 4.8 | 16.1 | 0.89 | 1.19 | 1.19 | 90 | 1009.3 |
| 20260506180503 | 13 | 289 | 6.4 | 20.9 | 0.89 | 1.19 | 1.19 | 90 | 1009.4 |
| 20260506180403 | 13 | 289 | 6.4 | 20.9 | 0.89 | 1.19 | 1.19 | 90 | 1009.4 |
| 20260506180303 | 13 | 289 | 8.0 | 20.9 | 0.89 | 1.19 | 1.19 | 90 | 1009.6 |
| 20260506180203 | 13 | 290 | 8.0 | 20.9 | 0.89 | 1.19 | 1.19 | 90 | 1009.6 |
| 20260506180103 | 13 | 290 | 8.0 | 20.9 | 0.89 | 1.19 | 1.19 | 90 | 1009.7 |
| 20260506180005 | 13 | 288 | 8.0 | 20.9 | 0.89 | 1.19 | 1.19 | 91 | 1009.6 |
| 20260506175903 | 13 | 287 | 9.7 | 22.5 | 0.89 | 1.19 | 1.19 | 91 | 1009.6 |
| 20260506175803 | 13 | 287 | 9.7 | 22.5 | 0.89 | 1.19 | 1.19 | 91 | 1009.6 |
| 20260506175703 | 13 | 287 | 9.7 | 22.5 | 0.89 | 1.17 | 1.19 | 90 | 1009.4 |
| 20260506175603 | 13 | 287 | 9.7 | 22.5 | 0.89 | 1.17 | 1.17 | 90 | 1009.4 |
| 20260506175503 | 13 | 289 | 8.0 | 22.5 | 0.89 | 1.17 | 1.17 | 90 | 1009.7 |
| 20260506175403 | 13 | 288 | 8.0 | 22.5 | 0.84 | 1.14 | 1.14 | 90 | 1009.7 |
| 20260506175306 | 13 | 287 | 8.0 | 22.5 | 0.79 | 1.09 | 1.09 | 90 | 1010.0 |
| 20260506175203 | 13 | 286 | 8.0 | 22.5 | 0.76 | 1.07 | 1.07 | 90 | 1010.1 |
| 20260506175103 | 13 | 286 | 8.0 | 22.5 | 0.74 | 1.04 | 1.04 | 90 | 1010.1 |
| 20260506175003 | 13 | 286 | 6.4 | 22.5 | 0.71 | 0.99 | 1.02 | 90 | 1010.0 |
| 20260506174903 | 13 | 288 | 6.4 | 17.7 | 0.66 | 0.97 | 0.97 | 90 | 1010.0 |
| 20260506174803 | 13 | 287 | 6.4 | 17.7 | 0.61 | 0.89 | 0.89 | 90 | 1010.0 |
| 20260506174703 | 13 | 285 | 6.4 | 16.1 | 0.56 | 0.86 | 0.86 | 91 | 1009.8 |
| 20260506174603 | 13 | 285 | 6.4 | 16.1 | 0.51 | 0.81 | 0.81 | 91 | 1009.8 |
| 20260506174503 | 13 | 282 | 6.4 | 16.1 | 0.43 | 0.74 | 0.79 | 90 | 1010.0 |
| 20260506174403 | 13 | 282 | 6.4 | 16.1 | 0.28 | 0.58 | 0.64 | 90 | 1010.1 |
| 20260506174303 | 13 | 281 | 6.4 | 16.1 | 0.23 | 0.53 | 0.53 | 90 | 1010.1 |
| 20260506174203 | 13 | 281 | 6.4 | 16.1 | 0.18 | 0.48 | 0.48 | 90 | 1010.1 |
| 20260506174103 | 13 | 280 | 6.4 | 16.1 | 0.15 | 0.46 | 0.46 | 90 | 1010.1 |
| 20260506174003 | 13 | 280 | 6.4 | 16.1 | 0.13 | 0.43 | 0.43 | 90 | 1010.2 |
| 20260506173903 | 13 | 280 | 6.4 | 16.1 | 0.10 | 0.41 | 0.41 | 90 | 1010.3 |
| 20260506173804 | 14 | 280 | 6.4 | 14.5 | 0.08 | 0.38 | 0.38 | 90 | 1010.3 |
| 20260506173704 | 14 | 280 | 6.4 | 12.9 | 0.08 | 0.38 | 0.38 | 90 | 1010.3 |
| 20260506173604 | 14 | 280 | 6.4 | 11.3 | 0.08 | 0.38 | 0.38 | 90 | 1010.3 |
| 20260506173504 | 14 | 281 | 4.8 | 11.3 | 0.05 | 0.36 | 0.36 | 90 | 1010.1 |
| 20260506173404 | 14 | 281 | 6.4 | 11.3 | 0.05 | 0.36 | 0.36 | 89 | 1009.9 |
| 20260506173304 | 14 | 282 | 6.4 | 11.3 | 0.05 | 0.36 | 0.36 | 90 | 1009.9 |
| 20260506173204 | 14 | 282 | 6.4 | 11.3 | 0.05 | 0.36 | 0.36 | 89 | 1009.9 |
| 20260506173104 | 14 | 282 | 6.4 | 11.3 | 0.05 | 0.36 | 0.36 | 89 | 1009.9 |
| 20260506173004 | 14 | 282 | 6.4 | 11.3 | 0.05 | 0.36 | 0.36 | 89 | 1009.7 |
| 20260506172904 | 14 | 282 | 4.8 | 11.3 | 0.05 | 0.36 | 0.36 | 89 | 1009.8 |
| 20260506172804 | 14 | 282 | 4.8 | 11.3 | 0.05 | 0.36 | 0.36 | 88 | 1009.8 |
| 20260506172704 | 14 | 282 | 4.8 | 11.3 | 0.05 | 0.36 | 0.36 | 88 | 1009.7 |
| 20260506172604 | 14 | 282 | 3.2 | 11.3 | 0.05 | 0.36 | 0.36 | 88 | 1009.7 |
| 20260506172504 | 14 | 282 | 3.2 | 11.3 | 0.05 | 0.36 | 0.36 | 88 | 1009.7 |
| 20260506172404 | 14 | 282 | 1.6 | 11.3 | 0.05 | 0.36 | 0.36 | 88 | 1009.6 |
| 20260506172306 | 14 | 282 | 1.6 | 11.3 | 0.05 | 0.33 | 0.33 | 87 | 1009.6 |
| 20260506172204 | 14 | 282 | 1.6 | 11.3 | 0.05 | 0.33 | 0.33 | 87 | 1009.6 |
| 20260506172104 | 14 | 282 | 0.0 | 8.0 | 0.05 | 0.33 | 0.33 | 88 | 1009.5 |
| 20260506172003 | 14 | 0 | 0.0 | 0.0 | 0.05 | 0.33 | 0.33 | 88 | 1009.5 |
| 20260506171904 | 14 | 0 | 0.0 | 0.0 | 0.05 | 0.33 | 0.33 | 88 | 1009.4 |
| 20260506171804 | 14 | 0 | 0.0 | 0.0 | 0.05 | 0.33 | 0.33 | 88 | 1009.4 |
| 20260506171704 | 14 | 0 | 0.0 | 0.0 | 0.05 | 0.33 | 0.33 | 88 | 1009.4 |
| 20260506171604 | 14 | 0 | 0.0 | 0.0 | 0.05 | 0.33 | 0.33 | 87 | 1009.3 |
| 20260506171504 | 14 | 0 | 0.0 | 0.0 | 0.05 | 0.33 | 0.33 | 87 | 1009.3 |
| 20260506171403 | 14 | 288 | 0.0 | 1.6 | 0.05 | 0.33 | 0.33 | 87 | 1009.3 |
| 20260506171303 | 15 | 289 | 0.0 | 4.8 | 0.05 | 0.33 | 0.33 | 87 | 1009.3 |
| 20260506171203 | 15 | 293 | 0.0 | 4.8 | 0.05 | 0.33 | 0.33 | 87 | 1009.3 |
| 20260506171103 | 15 | 293 | 0.0 | 4.8 | 0.05 | 0.33 | 0.33 | 87 | 1009.3 |
| 20260506171004 | 15 | 294 | 0.0 | 4.8 | 0.03 | 0.33 | 0.33 | 87 | 1009.3 |
| 20260506170903 | 15 | 294 | 0.0 | 4.8 | 0.03 | 0.33 | 0.33 | 87 | 1009.3 |
| 20260506170803 | 15 | 296 | 0.0 | 4.8 | 0.03 | 0.33 | 0.33 | 87 | 1009.2 |
| 20260506170703 | 15 | 296 | 1.6 | 4.8 | 0.03 | 0.33 | 0.33 | 87 | 1009.2 |
| 20260506170603 | 15 | 296 | 1.6 | 4.8 | 0.03 | 0.33 | 0.33 | 86 | 1009.2 |
| 20260506170503 | 15 | 296 | 1.6 | 4.8 | 0.03 | 0.33 | 0.33 | 87 | 1009.2 |
| 20260506170403 | 15 | 296 | 1.6 | 4.8 | 0.03 | 0.33 | 0.33 | 86 | 1009.1 |
| 20260506170303 | 15 | 298 | 1.6 | 4.8 | 0.03 | 0.33 | 0.33 | 86 | 1009.1 |
| 20260506170203 | 15 | 298 | 1.6 | 4.8 | 0.03 | 0.33 | 0.33 | 86 | 1009.1 |
| 20260506170103 | 15 | 298 | 1.6 | 4.8 | 0.03 | 0.33 | 0.33 | 86 | 1009.0 |
| 20260506170004 | 15 | 300 | 1.6 | 6.4 | 0.00 | 0.30 | 0.30 | 86 | 1009.0 |
| 20260506165903 | 15 | 300 | 1.6 | 6.4 | 0.00 | 0.30 | 0.30 | 86 | 1009.0 |
| 20260506165803 | 15 | 300 | 1.6 | 6.4 | 0.00 | 0.30 | 0.30 | 86 | 1008.9 |
| 20260506165703 | 15 | 301 | 1.6 | 6.4 | 0.00 | 0.30 | 0.30 | 86 | 1008.9 |
| 20260506165603 | 15 | 301 | 1.6 | 6.4 | 0.00 | 0.30 | 0.30 | 85 | 1008.8 |
| 20260506165503 | 15 | 301 | 1.6 | 6.4 | 0.00 | 0.30 | 0.30 | 85 | 1008.9 |
| 20260506165403 | 15 | 302 | 1.6 | 6.4 | 0.00 | 0.30 | 0.30 | 85 | 1008.9 |
| 20260506165305 | 15 | 302 | 1.6 | 6.4 | 0.00 | 0.30 | 0.30 | 86 | 1008.8 |
| 20260506165203 | 15 | 302 | 1.6 | 6.4 | 0.00 | 0.30 | 0.30 | 86 | 1008.8 |
| 20260506165103 | 15 | 302 | 1.6 | 6.4 | 0.00 | 0.30 | 0.30 | 86 | 1008.9 |
| 20260506165003 | 15 | 299 | 1.6 | 4.8 | 0.00 | 0.30 | 0.30 | 86 | 1008.9 |
| 20260506164903 | 15 | 299 | 1.6 | 4.8 | 0.00 | 0.30 | 0.30 | 86 | 1008.9 |
| 20260506164804 | 15 | 297 | 1.6 | 4.8 | 0.00 | 0.30 | 0.30 | 86 | 1008.9 |
| 20260506164703 | 15 | 297 | 1.6 | 4.8 | 0.00 | 0.30 | 0.30 | 86 | 1008.9 |
| 20260506164603 | 15 | 297 | 0.0 | 4.8 | 0.00 | 0.30 | 0.30 | 86 | 1008.8 |
| 20260506164503 | 15 | 292 | 0.0 | 4.8 | 0.00 | 0.30 | 0.30 | 86 | 1008.8 |
| 20260506164403 | 15 | 290 | 0.0 | 4.8 | 0.00 | 0.30 | 0.30 | 86 | 1008.8 |
| 20260506164303 | 15 | 286 | 0.0 | 8.0 | 0.00 | 0.30 | 0.30 | 86 | 1008.9 |
| 20260506164203 | 15 | 286 | 0.0 | 8.0 | 0.00 | 0.30 | 0.30 | 86 | 1008.9 |
| 20260506164103 | 15 | 286 | 0.0 | 8.0 | 0.00 | 0.30 | 0.30 | 86 | 1008.9 |
| 20260506164003 | 15 | 285 | 0.0 | 8.0 | 0.00 | 0.30 | 0.30 | 86 | 1008.9 |
| 20260506163903 | 15 | 284 | 0.0 | 8.0 | 0.00 | 0.30 | 0.30 | 86 | 1008.9 |
| 20260506163803 | 15 | 284 | 0.0 | 8.0 | 0.00 | 0.30 | 0.30 | 86 | 1008.9 |
| 20260506163703 | 15 | 285 | 0.0 | 8.0 | 0.00 | 0.30 | 0.30 | 86 | 1008.9 |
| 20260506163604 | 15 | 290 | 1.6 | 8.0 | 0.00 | 0.30 | 0.30 | 86 | 1008.9 |
| 20260506163504 | 15 | 291 | 1.6 | 8.0 | 0.00 | 0.30 | 0.30 | 86 | 1008.9 |
| 20260506163404 | 15 | 291 | 1.6 | 8.0 | 0.00 | 0.30 | 0.30 | 86 | 1008.9 |
| 20260506163304 | 15 | 296 | 0.0 | 8.0 | 0.00 | 0.30 | 0.30 | 86 | 1008.8 |
| 20260506163204 | 15 | 297 | 0.0 | 6.4 | 0.00 | 0.30 | 0.30 | 86 | 1008.7 |
| 20260506163104 | 15 | 298 | 0.0 | 6.4 | 0.00 | 0.30 | 0.30 | 86 | 1008.7 |
| 20260506163004 | 15 | 298 | 0.0 | 6.4 | 0.00 | 0.30 | 0.30 | 86 | 1008.7 |
| 20260506162904 | 15 | 296 | 0.0 | 6.4 | 0.00 | 0.30 | 0.30 | 86 | 1008.7 |
| 20260506162804 | 15 | 296 | 0.0 | 6.4 | 0.00 | 0.30 | 0.30 | 86 | 1008.7 |
| 20260506162704 | 15 | 294 | 1.6 | 6.4 | 0.00 | 0.30 | 0.30 | 86 | 1008.7 |
| 20260506162604 | 15 | 288 | 1.6 | 8.0 | 0.00 | 0.30 | 0.30 | 86 | 1008.7 |
| 20260506162504 | 15 | 285 | 1.6 | 9.7 | 0.00 | 0.30 | 0.30 | 86 | 1008.7 |
| 20260506162404 | 15 | 285 | 1.6 | 9.7 | 0.00 | 0.30 | 0.30 | 86 | 1008.7 |
| 20260506162306 | 15 | 285 | 1.6 | 9.7 | 0.00 | 0.30 | 0.30 | 85 | 1008.7 |
| 20260506162204 | 15 | 284 | 1.6 | 9.7 | 0.00 | 0.30 | 0.30 | 85 | 1008.7 |
| 20260506162104 | 15 | 285 | 1.6 | 9.7 | 0.00 | 0.30 | 0.30 | 85 | 1008.7 |
| 20260506162004 | 15 | 285 | 1.6 | 9.7 | 0.00 | 0.30 | 0.30 | 85 | 1008.7 |
| 20260506161904 | 15 | 285 | 1.6 | 9.7 | 0.00 | 0.30 | 0.30 | 85 | 1008.6 |
| 20260506161804 | 15 | 285 | 1.6 | 9.7 | 0.00 | 0.30 | 0.30 | 85 | 1008.6 |
| 20260506161704 | 15 | 285 | 1.6 | 9.7 | 0.00 | 0.30 | 0.30 | 85 | 1008.7 |
| 20260506161604 | 15 | 285 | 1.6 | 9.7 | 0.00 | 0.30 | 0.30 | 85 | 1008.7 |
| 20260506161503 | 15 | 287 | 1.6 | 6.4 | 0.00 | 0.30 | 0.30 | 85 | 1008.6 |
| 20260506161403 | 15 | 287 | 1.6 | 9.7 | 0.00 | 0.30 | 0.30 | 85 | 1008.6 |
| 20260506161303 | 15 | 287 | 1.6 | 9.7 | 0.00 | 0.30 | 0.30 | 85 | 1008.6 |
| 20260506161203 | 15 | 288 | 1.6 | 9.7 | 0.00 | 0.30 | 0.30 | 85 | 1008.4 |
| 20260506161103 | 15 | 287 | 3.2 | 9.7 | 0.00 | 0.30 | 0.30 | 85 | 1008.4 |
| 20260506161004 | 15 | 286 | 3.2 | 9.7 | 0.00 | 0.30 | 0.30 | 85 | 1008.4 |
| 20260506160903 | 15 | 286 | 3.2 | 9.7 | 0.00 | 0.30 | 0.30 | 85 | 1008.3 |
| 20260506160803 | 15 | 286 | 3.2 | 9.7 | 0.00 | 0.30 | 0.30 | 85 | 1008.3 |
| 20260506160703 | 15 | 286 | 4.8 | 9.7 | 0.00 | 0.30 | 0.30 | 85 | 1008.3 |
| 20260506160603 | 15 | 286 | 4.8 | 16.1 | 0.00 | 0.30 | 0.30 | 85 | 1008.3 |
| 20260506160503 | 15 | 286 | 4.8 | 16.1 | 0.00 | 0.30 | 0.30 | 86 | 1008.3 |
| 20260506160403 | 15 | 286 | 4.8 | 16.1 | 0.00 | 0.30 | 0.30 | 86 | 1008.1 |
| 20260506160303 | 15 | 285 | 4.8 | 16.1 | 0.00 | 0.30 | 0.30 | 86 | 1008.1 |
| 20260506160203 | 15 | 285 | 4.8 | 16.1 | 0.00 | 0.30 | 0.30 | 86 | 1008.0 |
| 20260506160103 | 15 | 286 | 4.8 | 16.1 | 0.00 | 0.30 | 0.30 | 86 | 1007.9 |
| 20260506160004 | 15 | 286 | 4.8 | 16.1 | 0.00 | 0.30 | 0.30 | 86 | 1007.9 |
| 20260506155903 | 15 | 287 | 4.8 | 16.1 | 0.00 | 0.30 | 0.30 | 86 | 1007.8 |
| 20260506155803 | 15 | 288 | 4.8 | 16.1 | 0.00 | 0.30 | 0.30 | 86 | 1007.8 |
| 20260506155703 | 15 | 288 | 4.8 | 16.1 | 0.00 | 0.30 | 0.30 | 86 | 1007.7 |
| 20260506155603 | 15 | 289 | 4.8 | 11.3 | 0.00 | 0.30 | 0.30 | 86 | 1007.6 |
| 20260506155503 | 15 | 290 | 4.8 | 11.3 | 0.00 | 0.30 | 0.30 | 86 | 1007.6 |
| 20260506155403 | 15 | 290 | 4.8 | 11.3 | 0.00 | 0.30 | 0.30 | 86 | 1007.6 |
| 20260506155306 | 15 | 290 | 4.8 | 11.3 | 0.00 | 0.30 | 0.30 | 86 | 1007.6 |
| 20260506155203 | 15 | 291 | 4.8 | 11.3 | 0.00 | 0.30 | 0.30 | 86 | 1007.5 |
| 20260506155103 | 15 | 290 | 4.8 | 11.3 | 0.00 | 0.30 | 0.30 | 86 | 1007.5 |
| 20260506155003 | 15 | 290 | 4.8 | 11.3 | 0.00 | 0.30 | 0.30 | 86 | 1007.5 |
| 20260506154903 | 15 | 289 | 4.8 | 11.3 | 0.00 | 0.30 | 0.30 | 86 | 1007.5 |
| 20260506154803 | 15 | 290 | 4.8 | 12.9 | 0.00 | 0.30 | 0.30 | 86 | 1007.5 |
| 20260506154703 | 15 | 290 | 4.8 | 12.9 | 0.00 | 0.30 | 0.30 | 86 | 1007.5 |
| 20260506154603 | 15 | 289 | 4.8 | 12.9 | 0.00 | 0.30 | 0.30 | 86 | 1007.6 |
| 20260506154503 | 15 | 289 | 6.4 | 12.9 | 0.00 | 0.30 | 0.30 | 86 | 1007.6 |
| 20260506154403 | 15 | 290 | 6.4 | 12.9 | 0.00 | 0.30 | 0.30 | 86 | 1007.6 |
| 20260506154303 | 15 | 289 | 6.4 | 12.9 | 0.00 | 0.30 | 0.30 | 86 | 1007.6 |
| 20260506154203 | 15 | 289 | 4.8 | 12.9 | 0.00 | 0.30 | 0.30 | 86 | 1007.6 |
| 20260506154103 | 15 | 289 | 4.8 | 12.9 | 0.00 | 0.30 | 0.30 | 86 | 1007.6 |
| 20260506154004 | 15 | 288 | 4.8 | 12.9 | 0.00 | 0.30 | 0.30 | 86 | 1007.6 |
| 20260506153904 | 15 | 289 | 4.8 | 12.9 | 0.00 | 0.30 | 0.30 | 86 | 1007.6 |
| 20260506153804 | 15 | 289 | 4.8 | 14.5 | 0.00 | 0.30 | 0.30 | 86 | 1007.7 |
| 20260506153704 | 15 | 288 | 4.8 | 14.5 | 0.00 | 0.30 | 0.30 | 86 | 1007.7 |
| 20260506153604 | 15 | 288 | 4.8 | 14.5 | 0.00 | 0.30 | 0.30 | 86 | 1007.8 |
| 20260506153504 | 15 | 288 | 4.8 | 14.5 | 0.00 | 0.30 | 0.30 | 86 | 1007.8 |
| 20260506153404 | 15 | 288 | 4.8 | 14.5 | 0.00 | 0.30 | 0.30 | 86 | 1007.9 |
| 20260506153304 | 15 | 289 | 4.8 | 14.5 | 0.00 | 0.30 | 0.30 | 86 | 1008.1 |
| 20260506153204 | 15 | 288 | 4.8 | 14.5 | 0.00 | 0.30 | 0.30 | 86 | 1008.1 |
| 20260506153104 | 15 | 288 | 6.4 | 14.5 | 0.00 | 0.30 | 0.30 | 86 | 1007.9 |
| 20260506153004 | 15 | 289 | 6.4 | 14.5 | 0.00 | 0.30 | 0.30 | 86 | 1008.0 |
| 20260506152904 | 15 | 290 | 6.4 | 14.5 | 0.00 | 0.30 | 0.30 | 86 | 1008.0 |
| 20260506152804 | 15 | 290 | 6.4 | 14.5 | 0.00 | 0.30 | 0.30 | 86 | 1008.0 |
| 20260506152704 | 15 | 290 | 4.8 | 14.5 | 0.00 | 0.30 | 0.30 | 86 | 1008.0 |
| 20260506152604 | 15 | 291 | 6.4 | 14.5 | 0.00 | 0.30 | 0.30 | 86 | 1008.1 |
| 20260506152504 | 15 | 291 | 6.4 | 14.5 | 0.00 | 0.30 | 0.30 | 86 | 1008.0 |
| 20260506152404 | 15 | 291 | 6.4 | 14.5 | 0.00 | 0.30 | 0.30 | 86 | 1008.0 |
| 20260506152305 | 15 | 291 | 6.4 | 14.5 | 0.00 | 0.30 | 0.30 | 86 | 1008.0 |
| 20260506152204 | 15 | 291 | 6.4 | 16.1 | 0.00 | 0.30 | 0.30 | 86 | 1008.0 |
| 20260506152104 | 15 | 291 | 6.4 | 16.1 | 0.00 | 0.30 | 0.30 | 86 | 1008.1 |
| 20260506152004 | 15 | 291 | 6.4 | 16.1 | 0.00 | 0.30 | 0.30 | 86 | 1008.1 |
| 20260506151904 | 15 | 291 | 6.4 | 16.1 | 0.00 | 0.30 | 0.30 | 86 | 1008.1 |
| 20260506151803 | 15 | 290 | 6.4 | 16.1 | 0.00 | 0.30 | 0.30 | 86 | 1008.2 |
| 20260506151703 | 15 | 290 | 6.4 | 20.9 | 0.00 | 0.30 | 0.30 | 86 | 1008.1 |
| 20260506151603 | 15 | 289 | 6.4 | 20.9 | 0.00 | 0.30 | 0.30 | 86 | 1008.1 |
| 20260506151503 | 15 | 289 | 6.4 | 20.9 | 0.00 | 0.30 | 0.30 | 86 | 1008.3 |
| 20260506151403 | 15 | 288 | 6.4 | 20.9 | 0.00 | 0.30 | 0.30 | 86 | 1008.3 |
| 20260506151303 | 15 | 288 | 6.4 | 20.9 | 0.00 | 0.30 | 0.30 | 86 | 1008.3 |
| 20260506151203 | 15 | 288 | 6.4 | 20.9 | 0.00 | 0.30 | 0.30 | 86 | 1008.4 |
| 20260506151103 | 15 | 288 | 6.4 | 20.9 | 0.00 | 0.30 | 0.30 | 86 | 1008.4 |
| 20260506151004 | 15 | 288 | 6.4 | 20.9 | 0.00 | 0.30 | 0.30 | 86 | 1008.5 |
| 20260506150903 | 15 | 287 | 6.4 | 20.9 | 0.00 | 0.30 | 0.30 | 86 | 1008.5 |
| 20260506150803 | 15 | 288 | 6.4 | 20.9 | 0.00 | 0.30 | 0.30 | 86 | 1008.3 |
| 20260506150703 | 15 | 287 | 4.8 | 17.7 | 0.00 | 0.30 | 0.30 | 86 | 1008.4 |
| 20260506150603 | 15 | 287 | 4.8 | 17.7 | 0.00 | 0.30 | 0.30 | 86 | 1008.4 |
| 20260506150504 | 15 | 286 | 4.8 | 17.7 | 0.00 | 0.30 | 0.30 | 86 | 1008.4 |
| 20260506150403 | 15 | 286 | 4.8 | 17.7 | 0.00 | 0.30 | 0.30 | 86 | 1008.4 |
| 20260506150305 | 15 | 286 | 4.8 | 17.7 | 0.00 | 0.30 | 0.30 | 85 | 1008.4 |
| 20260506150203 | 15 | 285 | 4.8 | 19.3 | 0.00 | 0.30 | 0.30 | 86 | 1008.5 |
| 20260506150103 | 15 | 285 | 4.8 | 19.3 | 0.00 | 0.30 | 0.30 | 86 | 1008.5 |
| 20260506150004 | 15 | 285 | 6.4 | 19.3 | 0.00 | 0.30 | 0.30 | 85 | 1008.5 |
| 20260506145903 | 15 | 285 | 6.4 | 19.3 | 0.00 | 0.30 | 0.30 | 86 | 1008.5 |
| 20260506145803 | 15 | 285 | 6.4 | 19.3 | 0.00 | 0.30 | 0.30 | 85 | 1008.5 |
| 20260506145703 | 15 | 285 | 6.4 | 19.3 | 0.00 | 0.30 | 0.30 | 85 | 1008.5 |
| 20260506145603 | 15 | 285 | 6.4 | 19.3 | 0.00 | 0.30 | 0.30 | 85 | 1008.5 |
| 20260506145503 | 15 | 285 | 6.4 | 19.3 | 0.00 | 0.30 | 0.30 | 85 | 1008.4 |
| 20260506145403 | 15 | 285 | 6.4 | 19.3 | 0.00 | 0.30 | 0.30 | 84 | 1008.3 |
| 20260506145305 | 15 | 285 | 6.4 | 19.3 | 0.00 | 0.30 | 0.30 | 84 | 1008.3 |
| 20260506145203 | 15 | 285 | 6.4 | 16.1 | 0.00 | 0.30 | 0.30 | 84 | 1008.3 |
| 20260506145103 | 15 | 285 | 6.4 | 14.5 | 0.00 | 0.30 | 0.30 | 84 | 1008.3 |
| 20260506145003 | 15 | 286 | 6.4 | 16.1 | 0.00 | 0.30 | 0.30 | 84 | 1008.3 |
| 20260506144903 | 15 | 286 | 6.4 | 16.1 | 0.00 | 0.30 | 0.30 | 84 | 1008.2 |
| 20260506144803 | 15 | 287 | 6.4 | 16.1 | 0.00 | 0.30 | 0.30 | 84 | 1008.2 |
| 20260506144703 | 15 | 287 | 6.4 | 16.1 | 0.00 | 0.30 | 0.30 | 84 | 1008.2 |
| 20260506144603 | 15 | 287 | 6.4 | 16.1 | 0.00 | 0.30 | 0.30 | 84 | 1008.2 |
| 20260506144503 | 15 | 287 | 6.4 | 16.1 | 0.00 | 0.30 | 0.30 | 84 | 1008.2 |
| 20260506144403 | 15 | 287 | 8.0 | 16.1 | 0.00 | 0.30 | 0.30 | 84 | 1008.2 |
| 20260506144303 | 15 | 286 | 8.0 | 16.1 | 0.00 | 0.30 | 0.30 | 85 | 1008.2 |
| 20260506144203 | 15 | 286 | 8.0 | 16.1 | 0.00 | 0.30 | 0.30 | 85 | 1008.2 |
| 20260506144103 | 15 | 286 | 8.0 | 16.1 | 0.00 | 0.30 | 0.30 | 85 | 1008.2 |
| 20260506144003 | 15 | 286 | 8.0 | 16.1 | 0.00 | 0.30 | 0.30 | 85 | 1008.2 |
| 20260506143903 | 15 | 285 | 8.0 | 16.1 | 0.00 | 0.30 | 0.30 | 85 | 1008.3 |
| 20260506143803 | 15 | 285 | 8.0 | 16.1 | 0.00 | 0.30 | 0.30 | 85 | 1008.3 |
| 20260506143703 | 15 | 285 | 8.0 | 19.3 | 0.00 | 0.30 | 0.30 | 85 | 1008.4 |
| 20260506143604 | 15 | 285 | 9.7 | 19.3 | 0.00 | 0.30 | 0.30 | 85 | 1008.4 |
| 20260506143504 | 15 | 285 | 9.7 | 19.3 | 0.00 | 0.30 | 0.30 | 85 | 1008.4 |
| 20260506143404 | 15 | 284 | 9.7 | 19.3 | 0.00 | 0.30 | 0.30 | 85 | 1008.3 |
| 20260506143304 | 15 | 284 | 9.7 | 19.3 | 0.00 | 0.30 | 0.30 | 85 | 1008.3 |
| 20260506143204 | 15 | 284 | 9.7 | 19.3 | 0.00 | 0.30 | 0.30 | 85 | 1008.3 |
| 20260506143104 | 15 | 284 | 9.7 | 19.3 | 0.00 | 0.30 | 0.30 | 86 | 1008.2 |
| 20260506143004 | 15 | 285 | 9.7 | 19.3 | 0.00 | 0.30 | 0.30 | 85 | 1008.2 |
| 20260506142904 | 15 | 285 | 9.7 | 19.3 | 0.00 | 0.30 | 0.30 | 85 | 1008.3 |
| 20260506142804 | 15 | 285 | 9.7 | 19.3 | 0.00 | 0.30 | 0.30 | 85 | 1008.1 |
| 20260506142704 | 15 | 285 | 8.0 | 17.7 | 0.00 | 0.30 | 0.30 | 85 | 1008.1 |
| 20260506142604 | 15 | 285 | 8.0 | 19.3 | 0.00 | 0.30 | 0.30 | 86 | 1008.2 |
| 20260506142504 | 15 | 285 | 8.0 | 19.3 | 0.00 | 0.30 | 0.30 | 86 | 1008.2 |
| 20260506142404 | 15 | 286 | 8.0 | 19.3 | 0.00 | 0.30 | 0.30 | 86 | 1008.2 |
| 20260506142306 | 15 | 286 | 8.0 | 19.3 | 0.00 | 0.30 | 0.30 | 86 | 1008.1 |
| 20260506142204 | 15 | 286 | 8.0 | 19.3 | 0.00 | 0.30 | 0.30 | 87 | 1008.1 |
| 20260506142104 | 15 | 285 | 8.0 | 24.1 | 0.00 | 0.30 | 0.30 | 87 | 1008.2 |
| 20260506142004 | 15 | 285 | 8.0 | 24.1 | 0.00 | 0.30 | 0.30 | 87 | 1008.2 |
| 20260506141904 | 15 | 284 | 9.7 | 24.1 | 0.00 | 0.30 | 0.30 | 87 | 1008.2 |
| 20260506141804 | 15 | 284 | 9.7 | 24.1 | 0.00 | 0.30 | 0.30 | 87 | 1008.3 |
| 20260506141703 | 15 | 284 | 9.7 | 24.1 | 0.00 | 0.30 | 0.30 | 87 | 1008.3 |
| 20260506141603 | 15 | 284 | 9.7 | 24.1 | 0.00 | 0.30 | 0.30 | 88 | 1008.3 |
| 20260506141504 | 15 | 284 | 9.7 | 24.1 | 0.00 | 0.30 | 0.30 | 88 | 1008.3 |
| 20260506141403 | 15 | 284 | 11.3 | 24.1 | 0.00 | 0.30 | 0.30 | 88 | 1008.3 |
| 20260506141307 | 15 | 284 | 11.3 | 24.1 | 0.00 | 0.30 | 0.30 | 88 | 1008.4 |
| 20260506141203 | 15 | 284 | 11.3 | 24.1 | 0.00 | 0.30 | 0.30 | 88 | 1008.4 |
| 20260506141103 | 15 | 283 | 11.3 | 22.5 | 0.00 | 0.30 | 0.30 | 88 | 1008.3 |
| 20260506141004 | 15 | 283 | 11.3 | 22.5 | 0.00 | 0.30 | 0.30 | 88 | 1008.3 |
| 20260506140903 | 15 | 283 | 11.3 | 25.7 | 0.00 | 0.30 | 0.30 | 88 | 1008.3 |
| 20260506140803 | 15 | 283 | 12.9 | 25.7 | 0.00 | 0.30 | 0.30 | 88 | 1008.3 |
| 20260506140703 | 15 | 283 | 12.9 | 25.7 | 0.00 | 0.30 | 0.30 | 88 | 1008.3 |
| 20260506140604 | 15 | 283 | 12.9 | 25.7 | 0.00 | 0.30 | 0.30 | 87 | 1008.4 |
| 20260506140503 | 15 | 283 | 12.9 | 27.4 | 0.00 | 0.30 | 0.30 | 87 | 1008.4 |
| 20260506140403 | 15 | 283 | 12.9 | 27.4 | 0.00 | 0.30 | 0.30 | 87 | 1008.4 |
| 20260506140303 | 15 | 282 | 14.5 | 29.0 | 0.00 | 0.30 | 0.30 | 87 | 1008.4 |
| 20260506140203 | 15 | 282 | 14.5 | 33.8 | 0.00 | 0.30 | 0.30 | 87 | 1008.4 |
| 20260506140103 | 15 | 282 | 16.1 | 33.8 | 0.00 | 0.30 | 0.30 | 86 | 1008.3 |
| 20260506140005 | 15 | 282 | 16.1 | 33.8 | 0.00 | 0.30 | 0.30 | 86 | 1008.4 |
| 20260506135903 | 15 | 282 | 16.1 | 33.8 | 0.00 | 0.30 | 0.30 | 86 | 1008.4 |
| 20260506135803 | 15 | 282 | 16.1 | 33.8 | 0.00 | 0.30 | 0.30 | 86 | 1008.4 |
| 20260506135703 | 16 | 282 | 16.1 | 33.8 | 0.00 | 0.30 | 0.30 | 86 | 1008.4 |
| 20260506135603 | 16 | 282 | 16.1 | 33.8 | 0.00 | 0.30 | 0.30 | 86 | 1008.3 |
| 20260506135503 | 16 | 283 | 16.1 | 33.8 | 0.00 | 0.30 | 0.30 | 85 | 1008.2 |
| 20260506135403 | 16 | 282 | 16.1 | 33.8 | 0.00 | 0.30 | 0.30 | 85 | 1008.2 |
| 20260506135306 | 16 | 283 | 14.5 | 33.8 | 0.00 | 0.30 | 0.30 | 84 | 1008.2 |
| 20260506135203 | 16 | 283 | 14.5 | 27.4 | 0.00 | 0.30 | 0.30 | 84 | 1008.3 |
| 20260506135103 | 16 | 283 | 14.5 | 25.7 | 0.00 | 0.30 | 0.30 | 83 | 1008.3 |
| 20260506135003 | 16 | 283 | 14.5 | 25.7 | 0.00 | 0.30 | 0.30 | 83 | 1008.4 |
| 20260506134903 | 16 | 283 | 12.9 | 25.7 | 0.00 | 0.30 | 0.30 | 82 | 1008.4 |
| 20260506134803 | 16 | 282 | 11.3 | 25.7 | 0.00 | 0.30 | 0.30 | 81 | 1008.4 |
| 20260506134703 | 17 | 284 | 9.7 | 25.7 | 0.00 | 0.30 | 0.30 | 80 | 1008.5 |
| 20260506134603 | 17 | 287 | 9.7 | 25.7 | 0.00 | 0.30 | 0.30 | 79 | 1008.5 |
| 20260506134503 | 17 | 292 | 8.0 | 25.7 | 0.00 | 0.30 | 0.30 | 78 | 1008.4 |
| 20260506134403 | 18 | 298 | 8.0 | 20.9 | 0.00 | 0.30 | 0.30 | 77 | 1008.4 |
| 20260506134303 | 18 | 305 | 8.0 | 20.9 | 0.00 | 0.30 | 0.30 | 76 | 1008.5 |
| 20260506134203 | 19 | 314 | 6.4 | 20.9 | 0.00 | 0.30 | 0.30 | 76 | 1008.3 |
| 20260506134103 | 19 | 325 | 6.4 | 19.3 | 0.00 | 0.30 | 0.30 | 77 | 1008.3 |
| 20260506134004 | 19 | 331 | 6.4 | 19.3 | 0.00 | 0.30 | 0.30 | 78 | 1008.1 |
| 20260506133903 | 19 | 331 | 6.4 | 19.3 | 0.00 | 0.30 | 0.30 | 77 | 1008.1 |
| 20260506133803 | 19 | 330 | 8.0 | 19.3 | 0.00 | 0.30 | 0.30 | 77 | 1008.1 |
| 20260506133703 | 19 | 329 | 8.0 | 19.3 | 0.00 | 0.30 | 0.30 | 77 | 1008.0 |
| 20260506133603 | 19 | 329 | 9.7 | 19.3 | 0.00 | 0.30 | 0.30 | 77 | 1008.0 |
| 20260506133503 | 19 | 328 | 9.7 | 19.3 | 0.00 | 0.30 | 0.30 | 77 | 1008.1 |
| 20260506133403 | 19 | 328 | 9.7 | 20.9 | 0.00 | 0.30 | 0.30 | 76 | 1008.0 |
| 20260506133304 | 19 | 327 | 9.7 | 20.9 | 0.00 | 0.30 | 0.30 | 76 | 1008.0 |
| 20260506133204 | 19 | 327 | 9.7 | 24.1 | 0.00 | 0.30 | 0.30 | 76 | 1008.1 |
| 20260506133104 | 19 | 326 | 9.7 | 24.1 | 0.00 | 0.30 | 0.30 | 76 | 1008.1 |
| 20260506133004 | 19 | 327 | 9.7 | 24.1 | 0.00 | 0.30 | 0.30 | 76 | 1008.1 |
| 20260506132904 | 19 | 327 | 9.7 | 24.1 | 0.00 | 0.30 | 0.30 | 75 | 1008.0 |
| 20260506132804 | 19 | 326 | 8.0 | 24.1 | 0.00 | 0.30 | 0.30 | 76 | 1008.0 |
| 20260506132710 | 19 | 325 | 8.0 | 24.1 | 0.00 | 0.30 | 0.30 | 76 | 1008.1 |
| 20260506132604 | 19 | 325 | 8.0 | 24.1 | 0.00 | 0.30 | 0.30 | 77 | 1008.1 |
| 20260506132504 | 19 | 326 | 8.0 | 24.1 | 0.00 | 0.30 | 0.30 | 78 | 1008.1 |
| 20260506132404 | 19 | 326 | 8.0 | 24.1 | 0.00 | 0.30 | 0.30 | 78 | 1008.1 |
| 20260506132307 | 19 | 324 | 8.0 | 24.1 | 0.00 | 0.30 | 0.30 | 79 | 1008.1 |
| 20260506132204 | 19 | 324 | 8.0 | 19.3 | 0.00 | 0.30 | 0.30 | 79 | 1008.0 |
| 20260506132104 | 19 | 323 | 8.0 | 19.3 | 0.00 | 0.30 | 0.30 | 78 | 1008.1 |
| 20260506132005 | 19 | 322 | 8.0 | 19.3 | 0.00 | 0.30 | 0.30 | 78 | 1008.1 |
| 20260506131904 | 19 | 321 | 8.0 | 19.3 | 0.00 | 0.30 | 0.30 | 78 | 1008.1 |
| 20260506131804 | 19 | 321 | 8.0 | 19.3 | 0.00 | 0.30 | 0.30 | 78 | 1008.1 |
| 20260506131704 | 19 | 321 | 8.0 | 19.3 | 0.00 | 0.30 | 0.30 | 77 | 1008.1 |
| 20260506131604 | 19 | 321 | 8.0 | 14.5 | 0.00 | 0.30 | 0.30 | 78 | 1008.2 |
| 20260506131504 | 19 | 320 | 8.0 | 14.5 | 0.00 | 0.30 | 0.30 | 78 | 1008.2 |
| 20260506131403 | 19 | 319 | 8.0 | 14.5 | 0.00 | 0.30 | 0.30 | 77 | 1008.3 |
| 20260506131303 | 19 | 318 | 8.0 | 14.5 | 0.00 | 0.30 | 0.30 | 77 | 1008.3 |
| 20260506131203 | 19 | 318 | 8.0 | 14.5 | 0.00 | 0.30 | 0.30 | 77 | 1008.2 |
| 20260506131103 | 19 | 317 | 8.0 | 14.5 | 0.00 | 0.30 | 0.30 | 77 | 1008.3 |
| 20260506131004 | 20 | 317 | 8.0 | 14.5 | 0.00 | 0.30 | 0.30 | 77 | 1008.3 |
| 20260506130903 | 20 | 318 | 8.0 | 14.5 | 0.00 | 0.30 | 0.30 | 77 | 1008.4 |
| 20260506130803 | 20 | 318 | 8.0 | 14.5 | 0.00 | 0.30 | 0.30 | 77 | 1008.4 |
| 20260506130703 | 20 | 318 | 8.0 | 14.5 | 0.00 | 0.30 | 0.30 | 77 | 1008.3 |
| 20260506130603 | 20 | 319 | 6.4 | 14.5 | 0.00 | 0.30 | 0.30 | 77 | 1008.3 |
| 20260506130503 | 20 | 320 | 6.4 | 14.5 | 0.00 | 0.30 | 0.30 | 77 | 1008.3 |
| 20260506130403 | 20 | 322 | 6.4 | 14.5 | 0.00 | 0.30 | 0.30 | 77 | 1008.5 |
| 20260506130303 | 20 | 325 | 6.4 | 16.1 | 0.00 | 0.30 | 0.30 | 77 | 1008.4 |
| 20260506130203 | 20 | 325 | 6.4 | 16.1 | 0.00 | 0.30 | 0.30 | 77 | 1008.4 |
| 20260506130103 | 20 | 326 | 6.4 | 16.1 | 0.00 | 0.30 | 0.30 | 78 | 1008.4 |
| 20260506130010 | 20 | 326 | 6.4 | 16.1 | 0.00 | 0.30 | 0.30 | 78 | 1008.4 |
| 20260506125914 | 20 | 325 | 8.0 | 16.1 | 0.00 | 0.30 | 0.30 | 78 | 1008.5 |
| 20260506125803 | 20 | 325 | 6.4 | 16.1 | 0.00 | 0.30 | 0.30 | 79 | 1008.4 |
| 20260506125703 | 20 | 325 | 8.0 | 16.1 | 0.00 | 0.30 | 0.30 | 78 | 1008.4 |
| 20260506125603 | 20 | 324 | 6.4 | 16.1 | 0.00 | 0.30 | 0.30 | 79 | 1008.5 |
| 20260506125503 | 20 | 321 | 8.0 | 16.1 | 0.00 | 0.30 | 0.30 | 78 | 1008.5 |
| 20260506125403 | 20 | 320 | 8.0 | 16.1 | 0.00 | 0.30 | 0.30 | 78 | 1008.5 |
| 20260506125305 | 19 | 318 | 6.4 | 14.5 | 0.00 | 0.30 | 0.30 | 78 | 1008.5 |
| 20260506125203 | 20 | 318 | 6.4 | 14.5 | 0.00 | 0.30 | 0.30 | 79 | 1008.5 |
| 20260506125103 | 19 | 318 | 6.4 | 14.5 | 0.00 | 0.30 | 0.30 | 79 | 1008.5 |
| 20260506125003 | 19 | 319 | 6.4 | 12.9 | 0.00 | 0.30 | 0.30 | 80 | 1008.6 |
| 20260506124903 | 19 | 320 | 6.4 | 17.7 | 0.00 | 0.30 | 0.30 | 81 | 1008.6 |
| 20260506124803 | 19 | 320 | 6.4 | 17.7 | 0.00 | 0.30 | 0.30 | 80 | 1008.5 |
| 20260506124703 | 19 | 319 | 8.0 | 17.7 | 0.00 | 0.30 | 0.30 | 80 | 1008.5 |
| 20260506124603 | 19 | 320 | 8.0 | 17.7 | 0.05 | 0.30 | 0.30 | 81 | 1008.5 |
| 20260506124503 | 19 | 322 | 8.0 | 17.7 | 0.05 | 0.30 | 0.30 | 81 | 1008.4 |
| 20260506124403 | 18 | 322 | 8.0 | 17.7 | 0.05 | 0.30 | 0.30 | 82 | 1008.4 |
| 20260506124303 | 18 | 322 | 8.0 | 17.7 | 0.05 | 0.30 | 0.30 | 81 | 1008.5 |
| 20260506124203 | 18 | 322 | 8.0 | 17.7 | 0.05 | 0.30 | 0.30 | 82 | 1008.5 |
| 20260506124103 | 18 | 321 | 8.0 | 17.7 | 0.05 | 0.30 | 0.30 | 81 | 1008.5 |
| 20260506124003 | 18 | 321 | 8.0 | 17.7 | 0.05 | 0.30 | 0.30 | 81 | 1008.5 |
| 20260506123903 | 18 | 321 | 8.0 | 17.7 | 0.05 | 0.30 | 0.30 | 82 | 1008.5 |
| 20260506123803 | 18 | 321 | 8.0 | 17.7 | 0.05 | 0.30 | 0.30 | 83 | 1008.4 |
| 20260506123703 | 18 | 322 | 8.0 | 17.7 | 0.05 | 0.30 | 0.30 | 82 | 1008.4 |
| 20260506123603 | 18 | 323 | 6.4 | 17.7 | 0.05 | 0.30 | 0.30 | 83 | 1008.5 |
| 20260506123504 | 18 | 324 | 8.0 | 19.3 | 0.05 | 0.30 | 0.30 | 83 | 1008.3 |
| 20260506123403 | 18 | 325 | 8.0 | 19.3 | 0.05 | 0.30 | 0.30 | 83 | 1008.3 |
| 20260506123303 | 18 | 326 | 8.0 | 19.3 | 0.05 | 0.30 | 0.30 | 83 | 1008.3 |
| 20260506123204 | 18 | 327 | 8.0 | 19.3 | 0.05 | 0.30 | 0.30 | 83 | 1008.3 |
| 20260506123104 | 18 | 327 | 8.0 | 19.3 | 0.05 | 0.30 | 0.30 | 82 | 1008.3 |
| 20260506123004 | 18 | 329 | 8.0 | 19.3 | 0.05 | 0.30 | 0.30 | 82 | 1008.3 |
| 20260506122904 | 18 | 329 | 8.0 | 19.3 | 0.05 | 0.30 | 0.30 | 83 | 1008.3 |
| 20260506122804 | 18 | 330 | 6.4 | 19.3 | 0.05 | 0.30 | 0.30 | 83 | 1008.3 |
| 20260506122704 | 17 | 330 | 6.4 | 19.3 | 0.05 | 0.30 | 0.30 | 83 | 1008.4 |
| 20260506122604 | 17 | 328 | 6.4 | 19.3 | 0.05 | 0.30 | 0.30 | 84 | 1008.4 |
| 20260506122504 | 17 | 325 | 4.8 | 17.7 | 0.05 | 0.30 | 0.30 | 85 | 1008.3 |
| 20260506122404 | 17 | 320 | 4.8 | 17.7 | 0.05 | 0.30 | 0.30 | 85 | 1008.3 |
| 20260506122306 | 17 | 315 | 3.2 | 16.1 | 0.05 | 0.30 | 0.30 | 85 | 1008.2 |
| 20260506122204 | 17 | 311 | 3.2 | 16.1 | 0.05 | 0.30 | 0.30 | 85 | 1008.3 |
| 20260506122104 | 17 | 309 | 3.2 | 16.1 | 0.05 | 0.30 | 0.30 | 85 | 1008.3 |
| 20260506122004 | 17 | 299 | 3.2 | 12.9 | 0.05 | 0.30 | 0.30 | 86 | 1008.2 |
| 20260506121904 | 17 | 302 | 3.2 | 9.7 | 0.05 | 0.30 | 0.30 | 86 | 1008.2 |
| 20260506121804 | 17 | 309 | 3.2 | 11.3 | 0.05 | 0.30 | 0.30 | 86 | 1008.2 |
| 20260506121704 | 17 | 310 | 4.8 | 12.9 | 0.05 | 0.30 | 0.30 | 86 | 1008.2 |
| 20260506121604 | 17 | 313 | 4.8 | 12.9 | 0.05 | 0.30 | 0.30 | 86 | 1008.2 |
| 20260506121504 | 17 | 318 | 3.2 | 12.9 | 0.05 | 0.30 | 0.30 | 86 | 1008.2 |
| 20260506121403 | 17 | 313 | 4.8 | 14.5 | 0.05 | 0.30 | 0.30 | 86 | 1008.2 |
| 20260506121303 | 17 | 309 | 4.8 | 14.5 | 0.05 | 0.30 | 0.30 | 86 | 1008.2 |
| 20260506121203 | 16 | 311 | 4.8 | 14.5 | 0.05 | 0.30 | 0.30 | 87 | 1008.4 |
| 20260506121103 | 16 | 309 | 4.8 | 14.5 | 0.05 | 0.30 | 0.30 | 87 | 1008.4 |
| 20260506121004 | 16 | 309 | 4.8 | 14.5 | 0.05 | 0.30 | 0.30 | 87 | 1008.3 |
| 20260506120903 | 16 | 303 | 3.2 | 14.5 | 0.05 | 0.30 | 0.30 | 88 | 1008.4 |
| 20260506120803 | 16 | 296 | 3.2 | 14.5 | 0.05 | 0.30 | 0.30 | 88 | 1008.4 |
| 20260506120703 | 16 | 291 | 3.2 | 14.5 | 0.05 | 0.30 | 0.30 | 88 | 1008.3 |
| 20260506120603 | 16 | 288 | 3.2 | 14.5 | 0.05 | 0.30 | 0.30 | 88 | 1008.3 |
| 20260506120503 | 16 | 286 | 3.2 | 14.5 | 0.05 | 0.30 | 0.30 | 88 | 1008.4 |
| 20260506120403 | 16 | 288 | 1.6 | 9.7 | 0.05 | 0.30 | 0.30 | 88 | 1008.4 |
| 20260506120303 | 16 | 296 | 1.6 | 8.0 | 0.05 | 0.30 | 0.30 | 88 | 1008.4 |
| 20260506120203 | 16 | 294 | 1.6 | 9.7 | 0.05 | 0.30 | 0.30 | 88 | 1008.4 |
| 20260506120103 | 16 | 297 | 1.6 | 9.7 | 0.05 | 0.30 | 0.30 | 88 | 1008.1 |
| 20260506120004 | 16 | 301 | 1.6 | 9.7 | 0.05 | 0.30 | 0.30 | 88 | 1008.1 |
| 20260506115903 | 16 | 309 | 1.6 | 11.3 | 0.05 | 0.30 | 0.30 | 88 | 1008.0 |
| 20260506115803 | 16 | 310 | 3.2 | 11.3 | 0.05 | 0.30 | 0.30 | 88 | 1008.0 |
| 20260506115703 | 16 | 311 | 3.2 | 11.3 | 0.05 | 0.30 | 0.30 | 88 | 1008.1 |
| 20260506115603 | 16 | 313 | 3.2 | 11.3 | 0.05 | 0.30 | 0.30 | 87 | 1008.2 |
| 20260506115503 | 16 | 314 | 4.8 | 14.5 | 0.05 | 0.30 | 0.30 | 87 | 1008.2 |
| 20260506115403 | 16 | 314 | 4.8 | 14.5 | 0.05 | 0.30 | 0.30 | 86 | 1008.2 |
| 20260506115306 | 16 | 314 | 6.4 | 20.9 | 0.05 | 0.30 | 0.30 | 87 | 1008.2 |
| 20260506115203 | 16 | 314 | 6.4 | 20.9 | 0.05 | 0.30 | 0.30 | 87 | 1008.2 |
| 20260506115103 | 16 | 313 | 8.0 | 20.9 | 0.05 | 0.30 | 0.30 | 87 | 1008.2 |
| 20260506115003 | 16 | 313 | 8.0 | 20.9 | 0.05 | 0.30 | 0.30 | 87 | 1008.2 |
| 20260506114903 | 16 | 312 | 8.0 | 20.9 | 0.05 | 0.30 | 0.30 | 87 | 1008.2 |
| 20260506114803 | 16 | 312 | 8.0 | 20.9 | 0.05 | 0.30 | 0.30 | 87 | 1008.2 |
| 20260506114703 | 16 | 312 | 9.7 | 20.9 | 0.05 | 0.30 | 0.30 | 87 | 1008.2 |
| 20260506114603 | 16 | 311 | 9.7 | 20.9 | 0.03 | 0.25 | 0.25 | 87 | 1008.0 |
| 20260506114503 | 16 | 310 | 9.7 | 20.9 | 0.00 | 0.23 | 0.23 | 86 | 1008.0 |
| 20260506114403 | 16 | 311 | 9.7 | 20.9 | 0.00 | 0.23 | 0.23 | 86 | 1008.1 |
| 20260506114303 | 16 | 310 | 8.0 | 20.9 | 0.00 | 0.23 | 0.23 | 86 | 1008.2 |
| 20260506114203 | 16 | 310 | 8.0 | 20.9 | 0.00 | 0.23 | 0.23 | 86 | 1008.2 |
| 20260506114103 | 16 | 311 | 8.0 | 20.9 | 0.00 | 0.23 | 0.23 | 86 | 1008.3 |
| 20260506114003 | 16 | 310 | 8.0 | 20.9 | 0.00 | 0.23 | 0.23 | 86 | 1008.3 |
| 20260506113903 | 16 | 311 | 8.0 | 20.9 | 0.00 | 0.23 | 0.23 | 86 | 1008.3 |
| 20260506113803 | 17 | 311 | 8.0 | 20.9 | 0.00 | 0.23 | 0.23 | 85 | 1008.5 |
| 20260506113703 | 17 | 312 | 8.0 | 20.9 | 0.00 | 0.23 | 0.23 | 86 | 1008.5 |
| 20260506113603 | 17 | 313 | 8.0 | 20.9 | 0.00 | 0.23 | 0.23 | 85 | 1008.6 |
| 20260506113503 | 17 | 314 | 8.0 | 20.9 | 0.00 | 0.23 | 0.23 | 85 | 1008.6 |
| 20260506113403 | 17 | 314 | 9.7 | 20.9 | 0.00 | 0.23 | 0.23 | 85 | 1008.5 |
| 20260506113303 | 17 | 314 | 9.7 | 20.9 | 0.00 | 0.23 | 0.23 | 85 | 1008.3 |
| 20260506113203 | 17 | 314 | 9.7 | 20.9 | 0.00 | 0.23 | 0.23 | 85 | 1008.3 |
| 20260506113103 | 17 | 314 | 8.0 | 19.3 | 0.00 | 0.23 | 0.23 | 85 | 1008.5 |
| 20260506113004 | 17 | 314 | 8.0 | 17.7 | 0.00 | 0.23 | 0.23 | 84 | 1008.5 |
| 20260506112904 | 17 | 314 | 8.0 | 17.7 | 0.00 | 0.23 | 0.23 | 84 | 1008.6 |
| 20260506112804 | 17 | 314 | 8.0 | 17.7 | 0.00 | 0.23 | 0.23 | 84 | 1008.5 |
| 20260506112704 | 17 | 314 | 8.0 | 17.7 | 0.00 | 0.23 | 0.23 | 84 | 1008.5 |
| 20260506112604 | 17 | 315 | 8.0 | 16.1 | 0.00 | 0.23 | 0.23 | 84 | 1008.5 |
| 20260506112504 | 17 | 315 | 6.4 | 16.1 | 0.00 | 0.23 | 0.23 | 84 | 1008.5 |
| 20260506112404 | 17 | 316 | 8.0 | 17.7 | 0.00 | 0.23 | 0.23 | 84 | 1008.5 |
| 20260506112306 | 17 | 316 | 8.0 | 17.7 | 0.00 | 0.23 | 0.23 | 84 | 1008.6 |
| 20260506112204 | 17 | 318 | 8.0 | 17.7 | 0.00 | 0.23 | 0.23 | 84 | 1008.6 |
| 20260506112104 | 17 | 318 | 8.0 | 17.7 | 0.00 | 0.23 | 0.23 | 84 | 1008.6 |
| 20260506112004 | 17 | 319 | 8.0 | 17.7 | 0.00 | 0.23 | 0.23 | 84 | 1008.6 |
| 20260506111904 | 17 | 320 | 8.0 | 17.7 | 0.00 | 0.23 | 0.23 | 84 | 1008.6 |
| 20260506111804 | 17 | 320 | 8.0 | 17.7 | 0.00 | 0.23 | 0.23 | 84 | 1008.7 |
| 20260506111704 | 17 | 320 | 8.0 | 17.7 | 0.00 | 0.23 | 0.23 | 83 | 1008.7 |
| 20260506111604 | 17 | 319 | 8.0 | 17.7 | 0.00 | 0.23 | 0.23 | 83 | 1008.7 |
| 20260506111504 | 17 | 318 | 8.0 | 17.7 | 0.00 | 0.23 | 0.23 | 83 | 1008.8 |
| 20260506111404 | 17 | 317 | 6.4 | 16.1 | 0.00 | 0.23 | 0.23 | 83 | 1008.8 |
| 20260506111304 | 17 | 316 | 8.0 | 16.1 | 0.00 | 0.23 | 0.23 | 83 | 1008.8 |
| 20260506111204 | 17 | 315 | 6.4 | 16.1 | 0.00 | 0.23 | 0.23 | 83 | 1008.8 |
| 20260506111103 | 17 | 315 | 6.4 | 16.1 | 0.00 | 0.23 | 0.23 | 83 | 1008.8 |
| 20260506111004 | 17 | 314 | 6.4 | 16.1 | 0.00 | 0.23 | 0.23 | 83 | 1008.8 |
| 20260506110903 | 17 | 314 | 6.4 | 16.1 | 0.00 | 0.23 | 0.23 | 83 | 1008.8 |
| 20260506110803 | 17 | 314 | 6.4 | 16.1 | 0.00 | 0.23 | 0.23 | 83 | 1008.8 |
| 20260506110703 | 17 | 315 | 6.4 | 16.1 | 0.00 | 0.23 | 0.23 | 83 | 1008.8 |
| 20260506110603 | 17 | 316 | 6.4 | 16.1 | 0.00 | 0.23 | 0.23 | 83 | 1008.8 |
| 20260506110503 | 17 | 316 | 6.4 | 16.1 | 0.00 | 0.23 | 0.23 | 83 | 1008.8 |
| 20260506110403 | 17 | 316 | 6.4 | 16.1 | 0.00 | 0.23 | 0.23 | 84 | 1008.8 |
| 20260506110303 | 17 | 317 | 4.8 | 11.3 | 0.00 | 0.23 | 0.23 | 84 | 1008.9 |
| 20260506110203 | 17 | 316 | 4.8 | 11.3 | 0.00 | 0.23 | 0.23 | 84 | 1008.9 |
| 20260506110103 | 17 | 315 | 4.8 | 11.3 | 0.00 | 0.23 | 0.23 | 84 | 1008.9 |
| 20260506110004 | 17 | 314 | 6.4 | 12.9 | 0.00 | 0.23 | 0.23 | 84 | 1008.9 |
| 20260506105903 | 17 | 313 | 6.4 | 14.5 | 0.00 | 0.23 | 0.23 | 84 | 1008.9 |
| 20260506105803 | 17 | 312 | 6.4 | 14.5 | 0.00 | 0.23 | 0.23 | 84 | 1008.9 |
| 20260506105703 | 17 | 311 | 6.4 | 14.5 | 0.00 | 0.23 | 0.23 | 84 | 1008.9 |
| 20260506105603 | 17 | 311 | 6.4 | 14.5 | 0.00 | 0.23 | 0.23 | 84 | 1008.9 |
| 20260506105503 | 17 | 311 | 6.4 | 14.5 | 0.00 | 0.23 | 0.23 | 85 | 1009.0 |
| 20260506105403 | 17 | 311 | 6.4 | 14.5 | 0.00 | 0.23 | 0.23 | 85 | 1009.0 |
| 20260506105305 | 17 | 312 | 6.4 | 14.5 | 0.00 | 0.23 | 0.23 | 84 | 1009.0 |
| 20260506105203 | 17 | 313 | 8.0 | 14.5 | 0.00 | 0.23 | 0.23 | 84 | 1009.0 |
| 20260506105103 | 17 | 313 | 8.0 | 17.7 | 0.00 | 0.23 | 0.23 | 84 | 1009.0 |
| 20260506105003 | 17 | 313 | 6.4 | 19.3 | 0.00 | 0.23 | 0.23 | 84 | 1009.0 |
| 20260506104903 | 17 | 313 | 6.4 | 19.3 | 0.00 | 0.23 | 0.23 | 84 | 1009.0 |
| 20260506104803 | 17 | 313 | 8.0 | 19.3 | 0.00 | 0.23 | 0.23 | 84 | 1009.0 |
| 20260506104703 | 17 | 314 | 8.0 | 19.3 | 0.00 | 0.23 | 0.23 | 84 | 1009.0 |
| 20260506104603 | 17 | 315 | 8.0 | 19.3 | 0.00 | 0.23 | 0.23 | 84 | 1009.0 |
| 20260506104503 | 17 | 315 | 8.0 | 19.3 | 0.00 | 0.23 | 0.23 | 84 | 1009.0 |
| 20260506104403 | 17 | 316 | 8.0 | 19.3 | 0.00 | 0.23 | 0.23 | 84 | 1009.0 |
| 20260506104303 | 17 | 315 | 9.7 | 19.3 | 0.00 | 0.23 | 0.23 | 84 | 1009.0 |
| 20260506104203 | 17 | 315 | 9.7 | 19.3 | 0.00 | 0.23 | 0.23 | 85 | 1009.0 |
| 20260506104103 | 17 | 316 | 9.7 | 19.3 | 0.00 | 0.23 | 0.23 | 85 | 1009.0 |
| 20260506104003 | 17 | 316 | 9.7 | 17.7 | 0.00 | 0.23 | 0.23 | 85 | 1009.0 |
| 20260506103903 | 17 | 316 | 9.7 | 17.7 | 0.00 | 0.23 | 0.23 | 84 | 1009.1 |
| 20260506103803 | 17 | 316 | 9.7 | 17.7 | 0.00 | 0.23 | 0.23 | 84 | 1009.1 |
| 20260506103703 | 16 | 315 | 9.7 | 17.7 | 0.00 | 0.23 | 0.23 | 84 | 1009.0 |
| 20260506103603 | 16 | 314 | 9.7 | 17.7 | 0.00 | 0.23 | 0.23 | 84 | 1009.1 |
| 20260506103503 | 16 | 314 | 9.7 | 17.7 | 0.00 | 0.23 | 0.23 | 84 | 1009.1 |
| 20260506103403 | 16 | 312 | 8.0 | 17.7 | 0.00 | 0.23 | 0.23 | 85 | 1009.0 |
| 20260506103303 | 16 | 312 | 8.0 | 16.1 | 0.00 | 0.23 | 0.23 | 85 | 1009.0 |
| 20260506103204 | 16 | 311 | 8.0 | 19.3 | 0.00 | 0.23 | 0.23 | 85 | 1009.1 |
| 20260506103104 | 16 | 312 | 8.0 | 19.3 | 0.00 | 0.23 | 0.23 | 85 | 1009.0 |
| 20260506103004 | 16 | 312 | 8.0 | 19.3 | 0.00 | 0.23 | 0.23 | 85 | 1009.0 |
| 20260506102904 | 16 | 313 | 8.0 | 19.3 | 0.00 | 0.23 | 0.23 | 85 | 1009.1 |
| 20260506102804 | 16 | 314 | 8.0 | 19.3 | 0.00 | 0.23 | 0.23 | 85 | 1009.1 |
| 20260506102704 | 16 | 315 | 8.0 | 19.3 | 0.00 | 0.23 | 0.23 | 85 | 1009.1 |
| 20260506102604 | 16 | 315 | 8.0 | 19.3 | 0.00 | 0.23 | 0.23 | 85 | 1009.1 |
| 20260506102504 | 16 | 315 | 9.7 | 19.3 | 0.00 | 0.23 | 0.23 | 85 | 1009.1 |
| 20260506102404 | 16 | 315 | 9.7 | 19.3 | 0.00 | 0.23 | 0.23 | 85 | 1009.1 |
| 20260506102305 | 16 | 315 | 9.7 | 20.9 | 0.00 | 0.23 | 0.23 | 85 | 1009.1 |
| 20260506102204 | 16 | 315 | 9.7 | 20.9 | 0.00 | 0.23 | 0.23 | 85 | 1009.1 |
| 20260506102104 | 16 | 314 | 11.3 | 24.1 | 0.00 | 0.23 | 0.23 | 85 | 1009.1 |
| 20260506102004 | 16 | 314 | 11.3 | 24.1 | 0.00 | 0.23 | 0.23 | 85 | 1009.1 |
| 20260506101904 | 16 | 314 | 11.3 | 24.1 | 0.00 | 0.23 | 0.23 | 85 | 1009.0 |
| 20260506101804 | 16 | 314 | 11.3 | 24.1 | 0.00 | 0.23 | 0.23 | 85 | 1009.0 |
| 20260506101704 | 16 | 313 | 11.3 | 24.1 | 0.00 | 0.23 | 0.23 | 85 | 1009.0 |
| 20260506101604 | 16 | 313 | 12.9 | 25.7 | 0.00 | 0.23 | 0.23 | 85 | 1009.0 |
| 20260506101504 | 16 | 313 | 12.9 | 25.7 | 0.00 | 0.23 | 0.23 | 85 | 1009.0 |
| 20260506101404 | 16 | 313 | 12.9 | 25.7 | 0.00 | 0.23 | 0.23 | 85 | 1009.1 |
| 20260506101304 | 16 | 314 | 12.9 | 27.4 | 0.00 | 0.23 | 0.23 | 85 | 1009.1 |
| 20260506101204 | 16 | 314 | 12.9 | 27.4 | 0.00 | 0.23 | 0.23 | 85 | 1009.1 |
| 20260506101104 | 16 | 313 | 12.9 | 27.4 | 0.00 | 0.23 | 0.23 | 84 | 1009.1 |
| 20260506101004 | 16 | 313 | 12.9 | 32.2 | 0.00 | 0.23 | 0.23 | 85 | 1009.1 |
| 20260506100903 | 16 | 313 | 12.9 | 32.2 | 0.00 | 0.23 | 0.23 | 84 | 1009.1 |
| 20260506100803 | 16 | 312 | 12.9 | 32.2 | 0.00 | 0.23 | 0.23 | 84 | 1009.0 |
| 20260506100703 | 16 | 312 | 12.9 | 32.2 | 0.00 | 0.23 | 0.23 | 84 | 1009.0 |
| 20260506100603 | 16 | 313 | 12.9 | 32.2 | 0.00 | 0.23 | 0.23 | 85 | 1009.0 |
| 20260506100503 | 16 | 313 | 12.9 | 32.2 | 0.00 | 0.23 | 0.23 | 85 | 1009.0 |
| 20260506100403 | 16 | 313 | 12.9 | 32.2 | 0.00 | 0.23 | 0.23 | 85 | 1009.0 |
| 20260506100303 | 16 | 312 | 12.9 | 32.2 | 0.00 | 0.23 | 0.23 | 85 | 1009.0 |
| 20260506100203 | 16 | 312 | 12.9 | 32.2 | 0.00 | 0.23 | 0.23 | 84 | 1009.0 |
| 20260506100103 | 16 | 312 | 12.9 | 32.2 | 0.00 | 0.23 | 0.23 | 84 | 1009.1 |
| 20260506100004 | 16 | 312 | 12.9 | 32.2 | 0.00 | 0.23 | 0.23 | 84 | 1009.0 |
| 20260506095903 | 16 | 313 | 11.3 | 24.1 | 0.00 | 0.23 | 0.23 | 84 | 1009.0 |
| 20260506095803 | 16 | 313 | 11.3 | 24.1 | 0.00 | 0.23 | 0.23 | 85 | 1009.0 |
| 20260506095703 | 16 | 314 | 11.3 | 24.1 | 0.00 | 0.23 | 0.23 | 86 | 1009.0 |
| 20260506095603 | 16 | 314 | 11.3 | 24.1 | 0.00 | 0.23 | 0.23 | 86 | 1009.0 |
| 20260506095503 | 16 | 314 | 11.3 | 24.1 | 0.00 | 0.23 | 0.23 | 85 | 1008.9 |
| 20260506095403 | 16 | 314 | 9.7 | 24.1 | 0.00 | 0.23 | 0.23 | 86 | 1008.9 |
| 20260506095305 | 16 | 315 | 9.7 | 24.1 | 0.00 | 0.23 | 0.23 | 86 | 1008.9 |
| 20260506095203 | 16 | 315 | 9.7 | 24.1 | 0.00 | 0.23 | 0.23 | 86 | 1008.9 |
| 20260506095103 | 16 | 316 | 9.7 | 24.1 | 0.00 | 0.23 | 0.23 | 86 | 1009.0 |
| 20260506095003 | 16 | 316 | 9.7 | 24.1 | 0.00 | 0.23 | 0.23 | 85 | 1008.9 |
| 20260506094903 | 16 | 316 | 9.7 | 24.1 | 0.00 | 0.23 | 0.23 | 86 | 1008.9 |
| 20260506094803 | 16 | 315 | 9.7 | 24.1 | 0.00 | 0.23 | 0.23 | 86 | 1009.0 |
| 20260506094703 | 16 | 315 | 9.7 | 24.1 | 0.00 | 0.23 | 0.23 | 87 | 1009.0 |
| 20260506094603 | 16 | 314 | 9.7 | 24.1 | 0.00 | 0.23 | 0.23 | 86 | 1009.0 |
| 20260506094503 | 16 | 315 | 11.3 | 24.1 | 0.00 | 0.23 | 0.23 | 86 | 1009.0 |
| 20260506094403 | 16 | 315 | 11.3 | 25.7 | 0.00 | 0.23 | 0.23 | 86 | 1009.0 |
| 20260506094303 | 16 | 315 | 11.3 | 25.7 | 0.00 | 0.23 | 0.23 | 86 | 1009.0 |
| 20260506094203 | 16 | 314 | 11.3 | 25.7 | 0.00 | 0.23 | 0.23 | 86 | 1008.9 |
| 20260506094103 | 16 | 314 | 11.3 | 25.7 | 0.00 | 0.23 | 0.23 | 86 | 1008.9 |
| 20260506094003 | 16 | 314 | 11.3 | 25.7 | 0.00 | 0.25 | 0.23 | 86 | 1009.0 |
| 20260506093903 | 16 | 314 | 9.7 | 25.7 | 0.00 | 0.25 | 0.23 | 86 | 1009.0 |
| 20260506093803 | 16 | 315 | 9.7 | 25.7 | 0.00 | 0.25 | 0.23 | 86 | 1009.0 |
| 20260506093703 | 16 | 315 | 9.7 | 25.7 | 0.00 | 0.25 | 0.23 | 87 | 1008.9 |
| 20260506093603 | 16 | 315 | 9.7 | 25.7 | 0.00 | 0.25 | 0.23 | 86 | 1008.9 |
| 20260506093503 | 16 | 314 | 9.7 | 25.7 | 0.00 | 0.25 | 0.23 | 86 | 1008.9 |
| 20260506093403 | 16 | 313 | 9.7 | 22.5 | 0.00 | 0.25 | 0.23 | 87 | 1008.9 |
| 20260506093303 | 16 | 314 | 9.7 | 22.5 | 0.00 | 0.25 | 0.23 | 87 | 1008.9 |
| 20260506093203 | 16 | 314 | 9.7 | 22.5 | 0.00 | 0.25 | 0.23 | 87 | 1008.8 |
| 20260506093103 | 16 | 313 | 9.7 | 22.5 | 0.00 | 0.25 | 0.23 | 87 | 1008.8 |
| 20260506093003 | 16 | 313 | 9.7 | 22.5 | 0.00 | 0.28 | 0.23 | 87 | 1008.9 |
| 20260506092903 | 16 | 313 | 9.7 | 22.5 | 0.00 | 0.28 | 0.23 | 87 | 1008.9 |
| 20260506092804 | 16 | 312 | 9.7 | 22.5 | 0.00 | 0.28 | 0.23 | 88 | 1008.9 |
| 20260506092704 | 16 | 312 | 9.7 | 22.5 | 0.00 | 0.28 | 0.23 | 88 | 1008.9 |
| 20260506092604 | 16 | 311 | 11.3 | 29.0 | 0.00 | 0.28 | 0.23 | 88 | 1008.9 |
| 20260506092504 | 15 | 312 | 11.3 | 29.0 | 0.00 | 0.28 | 0.23 | 89 | 1008.9 |
| 20260506092404 | 15 | 312 | 11.3 | 29.0 | 0.00 | 0.28 | 0.23 | 89 | 1008.9 |
| 20260506092306 | 15 | 311 | 11.3 | 29.0 | 0.00 | 0.28 | 0.23 | 88 | 1008.9 |
| 20260506092204 | 15 | 311 | 11.3 | 29.0 | 0.00 | 0.28 | 0.23 | 88 | 1008.9 |
| 20260506092104 | 15 | 311 | 11.3 | 29.0 | 0.00 | 0.28 | 0.23 | 88 | 1008.9 |
| 20260506092004 | 15 | 312 | 11.3 | 29.0 | 0.00 | 0.28 | 0.23 | 88 | 1008.9 |
| 20260506091904 | 15 | 312 | 11.3 | 29.0 | 0.00 | 0.28 | 0.23 | 88 | 1008.9 |
| 20260506091804 | 15 | 313 | 11.3 | 29.0 | 0.00 | 0.28 | 0.23 | 88 | 1008.9 |
| 20260506091704 | 15 | 314 | 11.3 | 29.0 | 0.00 | 0.28 | 0.23 | 88 | 1008.8 |
| 20260506091604 | 15 | 315 | 11.3 | 24.1 | 0.00 | 0.28 | 0.23 | 88 | 1008.9 |
| 20260506091504 | 15 | 315 | 11.3 | 24.1 | 0.00 | 0.28 | 0.23 | 88 | 1008.9 |
| 20260506091404 | 15 | 316 | 9.7 | 24.1 | 0.00 | 0.28 | 0.23 | 88 | 1008.9 |
| 20260506091304 | 15 | 317 | 9.7 | 24.1 | 0.00 | 0.28 | 0.23 | 88 | 1008.9 |
| 20260506091204 | 15 | 318 | 9.7 | 22.5 | 0.00 | 0.28 | 0.23 | 88 | 1008.9 |
| 20260506091104 | 15 | 318 | 8.0 | 22.5 | 0.00 | 0.28 | 0.23 | 88 | 1009.0 |
| 20260506091004 | 15 | 318 | 8.0 | 22.5 | 0.00 | 0.28 | 0.23 | 89 | 1009.0 |
| 20260506090903 | 15 | 319 | 8.0 | 22.5 | 0.00 | 0.28 | 0.23 | 88 | 1009.0 |
| 20260506090803 | 15 | 318 | 9.7 | 22.5 | 0.00 | 0.28 | 0.23 | 89 | 1009.0 |
| 20260506090703 | 15 | 317 | 8.0 | 20.9 | 0.00 | 0.28 | 0.23 | 89 | 1009.0 |
| 20260506090603 | 15 | 316 | 9.7 | 20.9 | 0.00 | 0.28 | 0.23 | 89 | 1009.0 |
| 20260506090503 | 15 | 316 | 9.7 | 20.9 | 0.00 | 0.28 | 0.23 | 89 | 1009.0 |
| 20260506090403 | 15 | 316 | 8.0 | 20.9 | 0.00 | 0.28 | 0.23 | 89 | 1009.0 |
| 20260506090303 | 15 | 315 | 8.0 | 20.9 | 0.00 | 0.28 | 0.23 | 89 | 1009.0 |
| 20260506090203 | 15 | 315 | 8.0 | 20.9 | 0.00 | 0.28 | 0.23 | 89 | 1008.9 |
| 20260506090103 | 15 | 315 | 8.0 | 20.9 | 0.00 | 0.28 | 0.23 | 90 | 1009.0 |
| 20260506090004 | 15 | 316 | 8.0 | 20.9 | 0.00 | 0.28 | 0.23 | 89 | 1009.0 |
| 20260506085903 | 15 | 315 | 8.0 | 20.9 | 0.00 | 0.28 | 0.23 | 89 | 1009.0 |
| 20260506085803 | 15 | 315 | 6.4 | 20.9 | 0.00 | 0.28 | 0.23 | 89 | 1009.0 |
| 20260506085703 | 15 | 316 | 6.4 | 20.9 | 0.00 | 0.28 | 0.23 | 90 | 1009.0 |
| 20260506085603 | 15 | 315 | 4.8 | 12.9 | 0.00 | 0.28 | 0.23 | 91 | 1009.0 |
| 20260506085503 | 15 | 316 | 6.4 | 16.1 | 0.00 | 0.28 | 0.23 | 91 | 1009.0 |
| 20260506085403 | 15 | 316 | 6.4 | 16.1 | 0.00 | 0.28 | 0.23 | 91 | 1009.0 |
| 20260506085305 | 15 | 315 | 6.4 | 16.1 | 0.00 | 0.28 | 0.23 | 91 | 1008.9 |
| 20260506085203 | 15 | 315 | 6.4 | 16.1 | 0.00 | 0.28 | 0.23 | 91 | 1008.9 |
| 20260506085103 | 15 | 314 | 6.4 | 16.1 | 0.00 | 0.28 | 0.23 | 91 | 1008.9 |
| 20260506085003 | 15 | 313 | 6.4 | 16.1 | 0.00 | 0.28 | 0.23 | 91 | 1008.9 |
| 20260506084903 | 14 | 314 | 8.0 | 19.3 | 0.00 | 0.28 | 0.23 | 91 | 1008.9 |
| 20260506084803 | 14 | 313 | 8.0 | 19.3 | 0.00 | 0.28 | 0.23 | 91 | 1009.0 |
| 20260506084703 | 14 | 313 | 8.0 | 19.3 | 0.00 | 0.28 | 0.23 | 91 | 1009.0 |
| 20260506084603 | 14 | 313 | 8.0 | 19.3 | 0.00 | 0.28 | 0.23 | 91 | 1008.9 |
| 20260506084503 | 14 | 312 | 8.0 | 19.3 | 0.00 | 0.28 | 0.23 | 91 | 1009.0 |
| 20260506084403 | 14 | 311 | 8.0 | 19.3 | 0.03 | 0.28 | 0.23 | 91 | 1009.0 |
| 20260506084303 | 14 | 311 | 6.4 | 19.3 | 0.03 | 0.28 | 0.23 | 91 | 1008.8 |
| 20260506084203 | 14 | 310 | 6.4 | 19.3 | 0.03 | 0.28 | 0.23 | 91 | 1008.8 |
| 20260506084103 | 14 | 310 | 6.4 | 19.3 | 0.03 | 0.28 | 0.23 | 92 | 1008.9 |
| 20260506084003 | 14 | 309 | 6.4 | 19.3 | 0.03 | 0.30 | 0.23 | 92 | 1008.8 |
| 20260506083903 | 14 | 309 | 6.4 | 19.3 | 0.03 | 0.30 | 0.23 | 92 | 1008.8 |
| 20260506083803 | 14 | 309 | 8.0 | 19.3 | 0.03 | 0.30 | 0.23 | 92 | 1008.8 |
| 20260506083703 | 14 | 309 | 8.0 | 19.3 | 0.03 | 0.30 | 0.23 | 92 | 1008.8 |
| 20260506083603 | 14 | 309 | 8.0 | 19.3 | 0.03 | 0.30 | 0.23 | 92 | 1008.8 |
| 20260506083503 | 14 | 309 | 8.0 | 19.3 | 0.03 | 0.30 | 0.23 | 92 | 1008.8 |
| 20260506083403 | 14 | 309 | 9.7 | 20.9 | 0.03 | 0.30 | 0.23 | 92 | 1008.8 |
| 20260506083304 | 14 | 310 | 9.7 | 20.9 | 0.03 | 0.30 | 0.23 | 92 | 1008.8 |
| 20260506083204 | 14 | 310 | 9.7 | 20.9 | 0.03 | 0.30 | 0.23 | 92 | 1008.8 |
| 20260506083104 | 14 | 310 | 9.7 | 20.9 | 0.03 | 0.30 | 0.23 | 92 | 1008.8 |
| 20260506083004 | 14 | 311 | 9.7 | 20.9 | 0.03 | 0.30 | 0.23 | 92 | 1008.8 |
| 20260506082904 | 14 | 311 | 9.7 | 20.9 | 0.03 | 0.30 | 0.23 | 93 | 1008.8 |
| 20260506082804 | 14 | 311 | 9.7 | 20.9 | 0.03 | 0.30 | 0.23 | 92 | 1008.8 |
| 20260506082704 | 14 | 312 | 9.7 | 20.9 | 0.03 | 0.30 | 0.23 | 92 | 1008.9 |
| 20260506082604 | 14 | 312 | 9.7 | 20.9 | 0.03 | 0.30 | 0.23 | 92 | 1008.9 |
| 20260506082504 | 14 | 313 | 11.3 | 20.9 | 0.03 | 0.30 | 0.23 | 93 | 1008.9 |
| 20260506082404 | 14 | 312 | 9.7 | 20.9 | 0.03 | 0.30 | 0.23 | 93 | 1008.9 |
| 20260506082305 | 14 | 312 | 9.7 | 20.9 | 0.03 | 0.30 | 0.23 | 93 | 1008.9 |
| 20260506082204 | 14 | 312 | 9.7 | 20.9 | 0.03 | 0.30 | 0.23 | 93 | 1009.0 |
| 20260506082104 | 14 | 312 | 9.7 | 20.9 | 0.03 | 0.30 | 0.23 | 93 | 1009.0 |
| 20260506082004 | 14 | 312 | 9.7 | 20.9 | 0.03 | 0.30 | 0.23 | 93 | 1008.9 |
| 20260506081904 | 14 | 312 | 9.7 | 20.9 | 0.03 | 0.30 | 0.23 | 93 | 1008.9 |
| 20260506081804 | 14 | 311 | 11.3 | 20.9 | 0.03 | 0.30 | 0.23 | 93 | 1008.9 |
| 20260506081704 | 13 | 311 | 11.3 | 20.9 | 0.03 | 0.30 | 0.23 | 93 | 1009.0 |
| 20260506081603 | 13 | 310 | 11.3 | 20.9 | 0.03 | 0.30 | 0.23 | 94 | 1009.0 |
| 20260506081504 | 13 | 310 | 11.3 | 19.3 | 0.03 | 0.30 | 0.23 | 93 | 1008.9 |
| 20260506081404 | 13 | 310 | 9.7 | 19.3 | 0.03 | 0.30 | 0.23 | 93 | 1008.9 |
| 20260506081303 | 13 | 310 | 9.7 | 19.3 | 0.03 | 0.30 | 0.23 | 94 | 1009.0 |
| 20260506081203 | 13 | 310 | 11.3 | 22.5 | 0.03 | 0.30 | 0.23 | 94 | 1009.0 |
| 20260506081103 | 13 | 309 | 9.7 | 22.5 | 0.03 | 0.30 | 0.23 | 94 | 1009.0 |
| 20260506081004 | 13 | 309 | 9.7 | 22.5 | 0.03 | 0.30 | 0.23 | 93 | 1009.0 |
| 20260506080903 | 13 | 309 | 9.7 | 22.5 | 0.03 | 0.30 | 0.23 | 93 | 1009.0 |
| 20260506080804 | 13 | 309 | 9.7 | 22.5 | 0.03 | 0.30 | 0.23 | 93 | 1009.0 |
| 20260506080703 | 13 | 309 | 9.7 | 22.5 | 0.03 | 0.30 | 0.23 | 93 | 1008.9 |
| 20260506080603 | 13 | 309 | 9.7 | 22.5 | 0.03 | 0.30 | 0.23 | 93 | 1008.9 |
| 20260506080503 | 13 | 309 | 9.7 | 22.5 | 0.03 | 0.30 | 0.23 | 93 | 1008.8 |
| 20260506080403 | 13 | 309 | 9.7 | 24.1 | 0.03 | 0.30 | 0.23 | 93 | 1008.8 |
| 20260506080303 | 13 | 309 | 9.7 | 24.1 | 0.03 | 0.30 | 0.23 | 93 | 1008.8 |
| 20260506080203 | 13 | 309 | 9.7 | 24.1 | 0.03 | 0.30 | 0.23 | 93 | 1008.8 |
| 20260506080103 | 13 | 309 | 8.0 | 24.1 | 0.03 | 0.30 | 0.23 | 93 | 1008.8 |
| 20260506073503 | 13 | 309 | 6.4 | 17.7 | 0.03 | 0.28 | 0.23 | 93 | 1009.2 |
| 20260506073403 | 13 | 309 | 6.4 | 17.7 | 0.03 | 0.28 | 0.23 | 93 | 1009.2 |
| 20260506073303 | 13 | 310 | 6.4 | 17.7 | 0.03 | 0.28 | 0.23 | 93 | 1009.2 |
| 20260506073203 | 13 | 310 | 6.4 | 17.7 | 0.03 | 0.28 | 0.23 | 93 | 1009.2 |
| 20260506073103 | 13 | 310 | 8.0 | 19.3 | 0.03 | 0.28 | 0.23 | 93 | 1009.2 |
| 20260506073004 | 13 | 310 | 8.0 | 19.3 | 0.03 | 0.28 | 0.23 | 93 | 1009.2 |
| 20260506072904 | 13 | 310 | 8.0 | 19.3 | 0.03 | 0.28 | 0.23 | 93 | 1009.3 |
| 20260506072804 | 13 | 310 | 8.0 | 19.3 | 0.03 | 0.28 | 0.23 | 93 | 1009.3 |
| 20260506072704 | 13 | 310 | 9.7 | 19.3 | 0.03 | 0.28 | 0.23 | 93 | 1009.3 |
| 20260506072604 | 13 | 310 | 9.7 | 19.3 | 0.03 | 0.28 | 0.23 | 93 | 1009.2 |
| 20260506072504 | 13 | 310 | 9.7 | 19.3 | 0.03 | 0.28 | 0.23 | 93 | 1009.2 |
| 20260506072404 | 13 | 311 | 9.7 | 19.3 | 0.03 | 0.28 | 0.23 | 93 | 1009.2 |
| 20260506072305 | 13 | 311 | 8.0 | 19.3 | 0.03 | 0.28 | 0.23 | 93 | 1009.3 |
| 20260506072204 | 13 | 310 | 9.7 | 19.3 | 0.03 | 0.28 | 0.23 | 93 | 1009.3 |
| 20260506072104 | 13 | 311 | 8.0 | 17.7 | 0.03 | 0.28 | 0.23 | 93 | 1009.2 |
| 20260506072004 | 13 | 311 | 8.0 | 17.7 | 0.03 | 0.28 | 0.23 | 93 | 1009.3 |
| 20260506071904 | 13 | 311 | 8.0 | 17.7 | 0.03 | 0.28 | 0.23 | 93 | 1009.3 |
| 20260506071804 | 13 | 311 | 8.0 | 17.7 | 0.03 | 0.28 | 0.23 | 93 | 1009.3 |
| 20260506071704 | 13 | 311 | 8.0 | 17.7 | 0.03 | 0.28 | 0.23 | 93 | 1009.3 |
| 20260506071604 | 13 | 312 | 8.0 | 16.1 | 0.03 | 0.28 | 0.23 | 93 | 1009.3 |
| 20260506071504 | 13 | 311 | 8.0 | 16.1 | 0.03 | 0.28 | 0.23 | 93 | 1009.3 |
| 20260506071404 | 13 | 311 | 8.0 | 16.1 | 0.03 | 0.28 | 0.23 | 93 | 1009.3 |
| 20260506071304 | 13 | 311 | 8.0 | 16.1 | 0.03 | 0.28 | 0.23 | 93 | 1009.4 |
| 20260506071204 | 13 | 311 | 8.0 | 16.1 | 0.03 | 0.28 | 0.23 | 93 | 1009.4 |
| 20260506071104 | 13 | 311 | 8.0 | 16.1 | 0.03 | 0.28 | 0.23 | 93 | 1009.3 |
| 20260506071004 | 13 | 311 | 8.0 | 16.1 | 0.03 | 0.30 | 0.23 | 93 | 1009.3 |
| 20260506070904 | 13 | 311 | 8.0 | 16.1 | 0.03 | 0.30 | 0.23 | 93 | 1009.3 |
| 20260506070804 | 13 | 310 | 8.0 | 16.1 | 0.03 | 0.30 | 0.23 | 93 | 1009.3 |
| 20260506070703 | 13 | 310 | 8.0 | 16.1 | 0.03 | 0.30 | 0.23 | 93 | 1009.3 |
| 20260506070603 | 13 | 309 | 8.0 | 16.1 | 0.05 | 0.30 | 0.23 | 93 | 1009.3 |
| 20260506070504 | 13 | 309 | 8.0 | 16.1 | 0.05 | 0.30 | 0.23 | 93 | 1009.3 |
| 20260506070403 | 13 | 309 | 8.0 | 16.1 | 0.05 | 0.30 | 0.23 | 93 | 1009.3 |
| 20260506070303 | 13 | 309 | 6.4 | 14.5 | 0.05 | 0.30 | 0.23 | 93 | 1009.4 |
| 20260506070203 | 13 | 309 | 6.4 | 14.5 | 0.05 | 0.30 | 0.23 | 93 | 1009.4 |
| 20260506070103 | 13 | 309 | 6.4 | 14.5 | 0.05 | 0.30 | 0.23 | 93 | 1009.4 |
| 20260506062504 | 13 | 311 | 8.0 | 16.1 | 0.03 | 0.36 | 0.20 | 94 | 1009.4 |
| 20260506062404 | 13 | 311 | 8.0 | 16.1 | 0.03 | 0.36 | 0.20 | 94 | 1009.4 |
| 20260506062305 | 13 | 311 | 8.0 | 16.1 | 0.03 | 0.36 | 0.20 | 94 | 1009.4 |
| 20260506062204 | 13 | 311 | 8.0 | 16.1 | 0.03 | 0.36 | 0.20 | 94 | 1009.4 |
| 20260506062104 | 13 | 312 | 8.0 | 16.1 | 0.03 | 0.36 | 0.20 | 94 | 1009.5 |
| 20260506062004 | 13 | 311 | 8.0 | 16.1 | 0.03 | 0.38 | 0.20 | 94 | 1009.5 |
| 20260506061904 | 13 | 312 | 8.0 | 20.9 | 0.03 | 0.38 | 0.20 | 94 | 1009.5 |
| 20260506061804 | 13 | 311 | 8.0 | 20.9 | 0.03 | 0.38 | 0.20 | 94 | 1009.5 |
| 20260506061704 | 13 | 312 | 8.0 | 20.9 | 0.03 | 0.38 | 0.20 | 94 | 1009.4 |
| 20260506061604 | 13 | 312 | 6.4 | 20.9 | 0.03 | 0.38 | 0.20 | 94 | 1009.4 |
| 20260506061504 | 13 | 311 | 6.4 | 20.9 | 0.03 | 0.41 | 0.20 | 94 | 1009.4 |
| 20260506061404 | 13 | 311 | 6.4 | 20.9 | 0.03 | 0.41 | 0.20 | 94 | 1009.4 |
| 20260506061304 | 13 | 310 | 6.4 | 20.9 | 0.03 | 0.41 | 0.20 | 94 | 1009.3 |
| 20260506061204 | 13 | 310 | 6.4 | 20.9 | 0.03 | 0.41 | 0.20 | 94 | 1009.3 |
| 20260506061104 | 13 | 309 | 6.4 | 20.9 | 0.03 | 0.41 | 0.20 | 94 | 1009.4 |
| 20260506061004 | 13 | 309 | 6.4 | 20.9 | 0.03 | 0.48 | 0.20 | 94 | 1009.4 |
| 20260506060903 | 13 | 309 | 4.8 | 19.3 | 0.03 | 0.48 | 0.20 | 94 | 1009.4 |
| 20260506060803 | 13 | 308 | 4.8 | 14.5 | 0.03 | 0.48 | 0.20 | 95 | 1009.4 |
| 20260506060703 | 13 | 308 | 4.8 | 14.5 | 0.00 | 0.46 | 0.20 | 95 | 1009.4 |
| 20260506060603 | 13 | 308 | 4.8 | 14.5 | 0.00 | 0.46 | 0.18 | 95 | 1009.3 |
| 20260506060504 | 13 | 308 | 4.8 | 14.5 | 0.00 | 0.53 | 0.18 | 95 | 1009.3 |
| 20260506060403 | 13 | 309 | 4.8 | 14.5 | 0.00 | 0.53 | 0.18 | 95 | 1009.3 |
| 20260506060303 | 13 | 309 | 6.4 | 14.5 | 0.00 | 0.53 | 0.18 | 95 | 1009.4 |
| 20260506060204 | 13 | 308 | 8.0 | 14.5 | 0.00 | 0.53 | 0.18 | 95 | 1009.4 |